Observation data for Earth on 12/09/2018      Previous  Date  Next       Current Mesonet Observations  Soil Data  Daily Summary Page  Observations in Plain Language
KEA1 090600Z 27007KT M04/M05 A303 RMK A01 T10421051  RH  093%=      5-min Rain = 0
KEA1 090601Z 27008KT M04/M05 A303 RMK A01 T10421051  RH  094%=      5-min Rain = 0
KEA1 090602Z 27007KT M04/M05 A303 RMK A01 T10431051  RH  094%=      5-min Rain = 0
KEA1 090603Z 27007KT M04/M05 A303 RMK A01 T10431051  RH  094%=      5-min Rain = 0
KEA1 090604Z 27007KT M04/M05 A303 RMK A01 T10431051  RH  094%=      5-min Rain = 0
KEA1 090605Z 27007KT M04/M05 A303 RMK A01 T10431051  RH  094%=      5-min Rain = 0
KEA1 090606Z 26006KT M04/M05 A303 RMK A01 T10431051  RH  094%=      5-min Rain = 0
KEA1 090607Z 27006KT M04/M05 A303 RMK A01 T10431051  RH  094%=      5-min Rain = 0
KEA1 090608Z 27007KT M04/M05 A303 RMK A01 T10441053  RH  094%=      5-min Rain = 0
KEA1 090609Z 27006KT M04/M05 A303 RMK A01 T10441052  RH  094%=      5-min Rain = 0
KEA1 090610Z 26005KT M04/M05 A303 RMK A01 T10441051  RH  095%=      5-min Rain = 0
KEA1 090611Z 25004KT M04/M05 A303 RMK A01 T10431051  RH  095%=      5-min Rain = 0
KEA1 090612Z 22003KT M04/M05 A303 RMK A01 T10431051  RH  095%=      5-min Rain = 0
KEA1 090613Z 22003KT M04/M05 A303 RMK A01 T10421050  RH  095%=      5-min Rain = 0
KEA1 090614Z 24002KT M04/M05 A303 RMK A01 T10411047  RH  095%=      5-min Rain = 0
KEA1 090615Z 21003KT M04/M05 A303 RMK A01 T10391046  RH  095%=      5-min Rain = 0
KEA1 090616Z 20003KT M04/M05 A303 RMK A01 T10391045  RH  095%=      5-min Rain = 0
KEA1 090617Z 21003KT M04/M04 A303 RMK A01 T10381044  RH  095%=      5-min Rain = 0
KEA1 090618Z 20003KT M04/M04 A303 RMK A01 T10371043  RH  095%=      5-min Rain = 0
KEA1 090619Z 23003KT M04/M04 A303 RMK A01 T10361043  RH  095%=      5-min Rain = 0
KEA1 090620Z 24003KT M04/M04 A3029 RMK A01 T10361043  RH  095%=      5-min Rain = 0
KEA1 090621Z 24003KT M04/M04 A3029 RMK A01 T10351043  RH  095%=      5-min Rain = 0
KEA1 090622Z 23003KT M03/M04 A3029 RMK A01 T10341042  RH  095%=      5-min Rain = 0
KEA1 090623Z 24003KT M03/M04 A3029 RMK A01 T10341042  RH  094%=      5-min Rain = 0
KEA1 090624Z 26003KT M03/M04 A3029 RMK A01 T10341043  RH  094%=      5-min Rain = 0
KEA1 090625Z 27004KT M03/M04 A3029 RMK A01 T10341043  RH  094%=      5-min Rain = 0
KEA1 090626Z 26004KT M03/M04 A3029 RMK A01 T10341043  RH  093%=      5-min Rain = 0
KEA1 090627Z 24003KT M04/M05 A3029 RMK A01 T10351045  RH  093%=      5-min Rain = 0
KEA1 090628Z 24004KT M04/M05 A3029 RMK A01 T10351046  RH  093%=      5-min Rain = 0
KEA1 090629Z 26004KT M04/M05 A3029 RMK A01 T10361046  RH  093%=      5-min Rain = 0
KEA1 090630Z 26004KT M04/M05 A3029 RMK A01 T10361046  RH  093%=      5-min Rain = 0
KEA1 090631Z 26004KT M04/M05 A3029 RMK A01 T10361047  RH  093%=      5-min Rain = 0
KEA1 090632Z 24003KT M04/M05 A3029 RMK A01 T10371047  RH  093%=      5-min Rain = 0
KEA1 090633Z 24003KT M04/M05 A3029 RMK A01 T10371047  RH  093%=      5-min Rain = 0
KEA1 090634Z 24003KT M04/M05 A3029 RMK A01 T10381048  RH  093%=      5-min Rain = 0
KEA1 090635Z 24003KT M04/M05 A3029 RMK A01 T10381048  RH  093%=      5-min Rain = 0
KEA1 090636Z 24003KT M04/M05 A3029 RMK A01 T10371047  RH  093%=      5-min Rain = 0
KEA1 090637Z 24003KT M04/M05 A3029 RMK A01 T10371046  RH  093%=      5-min Rain = 0
KEA1 090638Z 22002KT M04/M05 A3029 RMK A01 T10371046  RH  093%=      5-min Rain = 0
KEA1 090639Z 25003KT M04/M05 A3029 RMK A01 T10371046  RH  093%=      5-min Rain = 0
KEA1 090640Z 26003KT M04/M05 A3029 RMK A01 T10361046  RH  093%=      5-min Rain = 0
KEA1 090641Z 26004KT M04/M05 A3029 RMK A01 T10361045  RH  093%=      5-min Rain = 0
KEA1 090642Z 26004KT M04/M05 A3029 RMK A01 T10361045  RH  093%=      5-min Rain = 0
KEA1 090643Z 26003KT M04/M05 A3029 RMK A01 T10361045  RH  093%=      5-min Rain = 0
KEA1 090644Z 25003KT M04/M05 A3029 RMK A01 T10361047  RH  093%=      5-min Rain = 0
KEA1 090645Z 24003KT M04/M05 A3029 RMK A01 T10361046  RH  093%=      5-min Rain = 0
KEA1 090646Z 23003KT M04/M05 A3029 RMK A01 T10361046  RH  093%=      5-min Rain = 0
KEA1 090647Z 24003KT M04/M05 A3029 RMK A01 T10371047  RH  093%=      5-min Rain = 0
KEA1 090648Z 25004KT M04/M05 A3029 RMK A01 T10371047  RH  093%=      5-min Rain = 0
KEA1 090649Z 25004KT M04/M05 A3029 RMK A01 T10361046  RH  093%=      5-min Rain = 0
KEA1 090650Z 25005KT M04/M05 A3029 RMK A01 T10351045  RH  093%=      5-min Rain = 0
KEA1 090651Z 26005KT M04/M04 A3029 RMK A01 T10351044  RH  093%=      5-min Rain = 0
KEA1 090652Z 26005KT M03/M04 A3029 RMK A01 T10341043  RH  093%=      5-min Rain = 0
KEA1 090653Z 26005KT M03/M04 A3029 RMK A01 T10341043  RH  093%=      5-min Rain = 0
KEA1 090654Z 22004KT M03/M04 A3029 RMK A01 T10341044  RH  093%=      5-min Rain = 0
KEA1 090655Z 25005KT M03/M05 A3029 RMK A01 T10341045  RH  093%=      5-min Rain = 0
KEA1 090656Z 25005KT M03/M04 A3029 RMK A01 T10341044  RH  093%=      5-min Rain = 0
KEA1 090657Z 24004KT M03/M04 A3029 RMK A01 T10331043  RH  093%=      5-min Rain = 0
KEA1 090658Z 25004KT M03/M04 A3029 RMK A01 T10331043  RH  093%=      5-min Rain = 0
KEA1 090659Z 26005KT M03/M04 A3029 RMK A01 T10321042  RH  092%=      5-min Rain = 0
KEA1 090700Z 26005KT M03/M04 A3029 RMK A01 T10311043  RH  092%=      5-min Rain = 0
KEA1 090701Z 25005KT M03/M04 A3029 RMK A01 T10311043  RH  092%=      5-min Rain = 0
KEA1 090702Z 26005KT M03/M04 A3029 RMK A01 T10311043  RH  091%=      5-min Rain = 0
KEA1 090703Z 27005KT M03/M04 A3029 RMK A01 T10311043  RH  091%=      5-min Rain = 0
KEA1 090704Z 26006KT M03/M04 A3029 RMK A01 T10311043  RH  091%=      5-min Rain = 0
KEA1 090705Z 25005KT M03/M04 A3029 RMK A01 T10311043  RH  091%=      5-min Rain = 0
KEA1 090706Z 25005KT M03/M04 A3029 RMK A01 T10301042  RH  091%=      5-min Rain = 0
KEA1 090707Z 25005KT M03/M05 A3029 RMK A01 T10321045  RH  090%=      5-min Rain = 0
KEA1 090708Z 25005KT M03/M05 A3029 RMK A01 T10331048  RH  090%=      5-min Rain = 0
KEA1 090709Z 26005KT M03/M05 A3029 RMK A01 T10341047  RH  091%=      5-min Rain = 0
KEA1 090710Z 27005KT M03/M05 A3029 RMK A01 T10341046  RH  091%=      5-min Rain = 0
KEA1 090711Z 27005KT M03/M05 A3029 RMK A01 T10341046  RH  092%=      5-min Rain = 0
KEA1 090712Z 27006KT M03/M05 A3029 RMK A01 T10341046  RH  092%=      5-min Rain = 0
KEA1 090713Z 27006KT M04/M05 A3029 RMK A01 T10361048  RH  091%=      5-min Rain = 0
KEA1 090714Z 27005KT M04/M05 A3029 RMK A01 T10371050  RH  091%=      5-min Rain = 0
KEA1 090715Z 25004KT M04/M05 A3029 RMK A01 T10391051  RH  091%=      5-min Rain = 0
KEA1 090716Z 26005KT M04/M05 A3029 RMK A01 T10401052  RH  092%=      5-min Rain = 0
KEA1 090717Z 27006KT M04/M05 A3029 RMK A01 T10401051  RH  093%=      5-min Rain = 0
KEA1 090718Z 27006KT M04/M05 A3029 RMK A01 T10391048  RH  093%=      5-min Rain = 0
KEA1 090719Z 26005KT M04/M05 A3029 RMK A01 T10381046  RH  094%=      5-min Rain = 0
KEA1 090720Z 27005KT M04/M05 A3029 RMK A01 T10381047  RH  094%=      5-min Rain = 0
KEA1 090721Z 27005KT M04/M05 A3029 RMK A01 T10371046  RH  094%=      5-min Rain = 0
KEA1 090722Z 27005KT M04/M05 A3029 RMK A01 T10381047  RH  093%=      5-min Rain = 0
KEA1 090723Z 26005KT M04/M05 A3029 RMK A01 T10381047  RH  093%=      5-min Rain = 0
KEA1 090724Z 25004KT M04/M05 A3029 RMK A01 T10391048  RH  093%=      5-min Rain = 0
KEA1 090725Z 24004KT M04/M05 A3029 RMK A01 T10401050  RH  093%=      5-min Rain = 0
KEA1 090726Z 26004KT M04/M05 A3029 RMK A01 T10401049  RH  093%=      5-min Rain = 0
KEA1 090727Z 26005KT M04/M05 A3029 RMK A01 T10401049  RH  093%=      5-min Rain = 0
KEA1 090728Z 26005KT M04/M05 A3029 RMK A01 T10401049  RH  093%=      5-min Rain = 0
KEA1 090729Z 26005KT M04/M05 A3028 RMK A01 T10401049  RH  093%=      5-min Rain = 0
KEA1 090730Z 26005KT M04/M05 A3028 RMK A01 T10401049  RH  094%=      5-min Rain = 0
KEA1 090731Z 26006KT M04/M05 A3028 RMK A01 T10401049  RH  093%=      5-min Rain = 0
KEA1 090732Z 26006KT M04/M05 A3028 RMK A01 T10401050  RH  093%=      5-min Rain = 0
KEA1 090733Z 25006KT M04/M05 A3028 RMK A01 T10421052  RH  093%=      5-min Rain = 0
KEA1 090734Z 26005KT M04/M05 A3028 RMK A01 T10411051  RH  093%=      5-min Rain = 0
KEA1 090735Z 26006KT M04/M05 A3028 RMK A01 T10411049  RH  094%=      5-min Rain = 0
KEA1 090736Z 25006KT M04/M05 A3028 RMK A01 T10401049  RH  094%=      5-min Rain = 0
KEA1 090737Z 25005KT M04/M05 A3028 RMK A01 T10401049  RH  093%=      5-min Rain = 0
KEA1 090738Z 25005KT M04/M05 A3028 RMK A01 T10411050  RH  093%=      5-min Rain = 0
KEA1 090739Z 25005KT M04/M05 A3028 RMK A01 T10411051  RH  093%=      5-min Rain = 0
KEA1 090740Z 25005KT M04/M05 A3028 RMK A01 T10411051  RH  093%=      5-min Rain = 0
KEA1 090741Z 25005KT M04/M05 A3028 RMK A01 T10411049  RH  094%=      5-min Rain = 0
KEA1 090742Z 25005KT M04/M05 A3028 RMK A01 T10401049  RH  093%=      5-min Rain = 0
KEA1 090743Z 26004KT M04/M05 A3028 RMK A01 T10411051  RH  093%=      5-min Rain = 0
KEA1 090744Z 26004KT M04/M05 A3028 RMK A01 T10421052  RH  093%=      5-min Rain = 0
KEA1 090745Z 24003KT M04/M05 A3029 RMK A01 T10431053  RH  093%=      5-min Rain = 0
KEA1 090746Z 23003KT M04/M05 A3029 RMK A01 T10431053  RH  093%=      5-min Rain = 0
KEA1 090747Z 24004KT M04/M05 A3029 RMK A01 T10431053  RH  093%=      5-min Rain = 0
KEA1 090748Z 24003KT M04/M05 A3028 RMK A01 T10421052  RH  093%=      5-min Rain = 0
KEA1 090749Z 24003KT M04/M05 A3028 RMK A01 T10421050  RH  094%=      5-min Rain = 0
KEA1 090750Z 25004KT M04/M05 A3028 RMK A01 T10411050  RH  094%=      5-min Rain = 0
KEA1 090751Z 26004KT M04/M05 A3028 RMK A01 T10411050  RH  094%=      5-min Rain = 0
KEA1 090752Z 27005KT M04/M05 A3028 RMK A01 T10411050  RH  093%=      5-min Rain = 0
KEA1 090753Z 28006KT M04/M05 A3028 RMK A01 T10421052  RH  093%=      5-min Rain = 0
KEA1 090754Z 28005KT M04/M05 A3028 RMK A01 T10431054  RH  092%=      5-min Rain = 0
KEA1 090755Z 28005KT M05/M06 A3028 RMK A01 T10451056  RH  092%=      5-min Rain = 0
KEA1 090756Z 27005KT M05/M06 A3028 RMK A01 T10451056  RH  092%=      5-min Rain = 0
KEA1 090757Z 25003KT M05/M06 A3028 RMK A01 T10461056  RH  093%=      5-min Rain = 0
KEA1 090758Z 22003KT M05/M06 A3029 RMK A01 T10471057  RH  092%=      5-min Rain = 0
KEA1 090759Z 24003KT M05/M06 A3029 RMK A01 T10461055  RH  093%=      5-min Rain = 0
KEA1 090800Z 27003KT M04/M05 A3029 RMK A01 T10441053  RH  094%=      5-min Rain = 0
KEA1 090801Z 27004KT M04/M05 A3029 RMK A01 T10441052  RH  094%=      5-min Rain = 0
KEA1 090802Z 28004KT M04/M05 A3029 RMK A01 T10431051  RH  094%=      5-min Rain = 0
KEA1 090803Z 27004KT M04/M05 A3029 RMK A01 T10431051  RH  094%=      5-min Rain = 0
KEA1 090804Z 27004KT M04/M05 A3029 RMK A01 T10431051  RH  094%=      5-min Rain = 0
KEA1 090805Z 25003KT M04/M05 A3029 RMK A01 T10421051  RH  094%=      5-min Rain = 0
KEA1 090806Z 22002KT M04/M05 A3029 RMK A01 T10431052  RH  094%=      5-min Rain = 0
KEA1 090807Z 24003KT M04/M05 A3029 RMK A01 T10431051  RH  094%=      5-min Rain = 0
KEA1 090808Z 27003KT M04/M05 A3029 RMK A01 T10431051  RH  094%=      5-min Rain = 0
KEA1 090809Z 28004KT M04/M05 A3029 RMK A01 T10431050  RH  094%=      5-min Rain = 0
KEA1 090810Z 28004KT M04/M05 A3029 RMK A01 T10411049  RH  095%=      5-min Rain = 0
KEA1 090811Z 28004KT M04/M05 A3029 RMK A01 T10411049  RH  094%=      5-min Rain = 0
KEA1 090812Z 28004KT M04/M05 A3029 RMK A01 T10411049  RH  094%=      5-min Rain = 0
KEA1 090813Z 28003KT M04/M05 A3029 RMK A01 T10411049  RH  094%=      5-min Rain = 0
KEA1 090814Z 28003KT M04/M05 A3029 RMK A01 T10411049  RH  094%=      5-min Rain = 0
KEA1 090815Z 28003KT M04/M05 A3028 RMK A01 T10411049  RH  094%=      5-min Rain = 0
KEA1 090816Z 27003KT M04/M05 A3028 RMK A01 T10421050  RH  094%=      5-min Rain = 0
KEA1 090817Z 26003KT M04/M05 A3028 RMK A01 T10431051  RH  094%=      5-min Rain = 0
KEA1 090818Z 26003KT M04/M05 A3028 RMK A01 T10441053  RH  094%=      5-min Rain = 0
KEA1 090819Z 28003KT M05/M05 A3028 RMK A01 T10451054  RH  093%=      5-min Rain = 0
KEA1 090820Z 29004KT M05/M06 A3028 RMK A01 T10461055  RH  093%=      5-min Rain = 0
KEA1 090821Z 29004KT M05/M06 A3028 RMK A01 T10461055  RH  093%=      5-min Rain = 0
KEA1 090822Z 29004KT M05/M06 A3028 RMK A01 T10471056  RH  093%=      5-min Rain = 0
KEA1 090823Z 29004KT M05/M06 A3029 RMK A01 T10471056  RH  093%=      5-min Rain = 0
KEA1 090824Z 28003KT M05/M06 A3029 RMK A01 T10481057  RH  093%=      5-min Rain = 0
KEA1 090825Z 26004KT M05/M06 A3029 RMK A01 T10481058  RH  093%=      5-min Rain = 0
KEA1 090826Z 27005KT M05/M06 A3029 RMK A01 T10501060  RH  093%=      5-min Rain = 0
KEA1 090827Z 27005KT M05/M06 A3029 RMK A01 T10511061  RH  093%=      5-min Rain = 0
KEA1 090828Z 26005KT M05/M06 A3029 RMK A01 T10521062  RH  093%=      5-min Rain = 0
KEA1 090829Z 26004KT M05/M07 A3029 RMK A01 T10541065  RH  092%=      5-min Rain = 0
KEA1 090830Z 27004KT M06/M07 A3029 RMK A01 T10551066  RH  092%=      5-min Rain = 0
KEA1 090831Z 27004KT M06/M07 A3029 RMK A01 T10551065  RH  093%=      5-min Rain = 0
KEA1 090832Z 27004KT M05/M06 A3029 RMK A01 T10541064  RH  093%=      5-min Rain = 0
KEA1 090833Z 27005KT M05/M06 A3029 RMK A01 T10541062  RH  094%=      5-min Rain = 0
KEA1 090834Z 27006KT M05/M06 A3029 RMK A01 T10531061  RH  094%=      5-min Rain = 0
KEA1 090835Z 27006KT M05/M06 A3029 RMK A01 T10531061  RH  094%=      5-min Rain = 0
KEA1 090836Z 27006KT M05/M06 A3029 RMK A01 T10531061  RH  094%=      5-min Rain = 0
KEA1 090837Z 27006KT M05/M06 A3029 RMK A01 T10531061  RH  094%=      5-min Rain = 0
KEA1 090838Z 26005KT M05/M06 A3029 RMK A01 T10531061  RH  094%=      5-min Rain = 0
KEA1 090839Z 25003KT M05/M06 A3029 RMK A01 T10531061  RH  094%=      5-min Rain = 0
KEA1 090840Z 25002KT M05/M06 A3029 RMK A01 T10531061  RH  094%=      5-min Rain = 0
KEA1 090841Z 26003KT M05/M06 A3029 RMK A01 T10521060  RH  095%=      5-min Rain = 0
KEA1 090842Z 27003KT M05/M06 A3029 RMK A01 T10521059  RH  095%=      5-min Rain = 0
KEA1 090843Z 27004KT M05/M06 A3029 RMK A01 T10511058  RH  095%=      5-min Rain = 0
KEA1 090844Z 27004KT M05/M06 A3029 RMK A01 T10511058  RH  095%=      5-min Rain = 0
KEA1 090845Z 27005KT M05/M06 A3029 RMK A01 T10511058  RH  095%=      5-min Rain = 0
KEA1 090846Z 27005KT M05/M06 A3029 RMK A01 T10511058  RH  095%=      5-min Rain = 0
KEA1 090847Z 26004KT M05/M06 A3029 RMK A01 T10521059  RH  095%=      5-min Rain = 0
KEA1 090848Z 26004KT M05/M06 A3029 RMK A01 T10521060  RH  095%=      5-min Rain = 0
KEA1 090849Z 25003KT M05/M06 A3029 RMK A01 T10521060  RH  095%=      5-min Rain = 0
KEA1 090850Z 25002KT M05/M06 A3029 RMK A01 T10531060  RH  095%=      5-min Rain = 0
KEA1 090851Z 26003KT M05/M06 A3029 RMK A01 T10521059  RH  095%=      5-min Rain = 0
KEA1 090852Z 28003KT M05/M06 A3029 RMK A01 T10511058  RH  095%=      5-min Rain = 0
KEA1 090853Z 27003KT M05/M06 A3029 RMK A01 T10501057  RH  095%=      5-min Rain = 0
KEA1 090854Z 27003KT M05/M06 A3029 RMK A01 T10501057  RH  095%=      5-min Rain = 0
KEA1 090855Z 26003KT M05/M06 A3029 RMK A01 T10501057  RH  095%=      5-min Rain = 0
KEA1 090856Z 27003KT M05/M06 A3029 RMK A01 T10511057  RH  095%=      5-min Rain = 0
KEA1 090857Z 27003KT M05/M06 A3029 RMK A01 T10511058  RH  095%=      5-min Rain = 0
KEA1 090858Z 28004KT M05/M06 A3029 RMK A01 T10511058  RH  095%=      5-min Rain = 0
KEA1 090859Z 28004KT M05/M06 A3029 RMK A01 T10521060  RH  095%=      5-min Rain = 0
KEA1 090900Z 29005KT M05/M06 A3029 RMK A01 T10541062  RH  094%=      5-min Rain = 0
KEA1 090901Z 29005KT M06/M06 A3029 RMK A01 T10551063  RH  094%=      5-min Rain = 0
KEA1 090902Z 29006KT M06/M06 A3029 RMK A01 T10551063  RH  094%=      5-min Rain = 0
KEA1 090903Z 29006KT M06/M06 A3029 RMK A01 T10551063  RH  094%=      5-min Rain = 0
KEA1 090904Z 29006KT M06/M06 A3029 RMK A01 T10551062  RH  095%=      5-min Rain = 0
KEA1 090905Z 28005KT M06/M06 A3029 RMK A01 T10551062  RH  095%=      5-min Rain = 0
KEA1 090906Z 28005KT M06/M06 A3029 RMK A01 T10551062  RH  095%=      5-min Rain = 0
KEA1 090907Z 29005KT M06/M06 A3029 RMK A01 T10551062  RH  095%=      5-min Rain = 0
KEA1 090908Z 29005KT M05/M06 A3029 RMK A01 T10541061  RH  095%=      5-min Rain = 0
KEA1 090909Z 29005KT M06/M06 A3029 RMK A01 T10551062  RH  095%=      5-min Rain = 0
KEA1 090910Z 29006KT M06/M06 A3029 RMK A01 T10551062  RH  095%=      5-min Rain = 0
KEA1 090911Z 29006KT M05/M06 A3029 RMK A01 T10541061  RH  095%=      5-min Rain = 0
KEA1 090912Z 29006KT M06/M06 A3029 RMK A01 T10551061  RH  095%=      5-min Rain = 0
KEA1 090913Z 29006KT M05/M06 A3029 RMK A01 T10541061  RH  095%=      5-min Rain = 0
KEA1 090914Z 29005KT M06/M06 A3029 RMK A01 T10551061  RH  095%=      5-min Rain = 0
KEA1 090915Z 29005KT M05/M06 A3029 RMK A01 T10541061  RH  095%=      5-min Rain = 0
KEA1 090916Z 29005KT M06/M06 A3029 RMK A01 T10551061  RH  095%=      5-min Rain = 0
KEA1 090917Z 29005KT M06/M06 A3029 RMK A01 T10551062  RH  095%=      5-min Rain = 0
KEA1 090918Z 29005KT M06/M06 A3029 RMK A01 T10561063  RH  095%=      5-min Rain = 0
KEA1 090919Z 29005KT M06/M06 A3029 RMK A01 T10561063  RH  095%=      5-min Rain = 0
KEA1 090920Z 29004KT M06/M06 A3029 RMK A01 T10561063  RH  095%=      5-min Rain = 0
KEA1 090921Z 29004KT M06/M06 A3029 RMK A01 T10561064  RH  095%=      5-min Rain = 0
KEA1 090922Z 29005KT M06/M06 A3029 RMK A01 T10561064  RH  094%=      5-min Rain = 0
KEA1 090923Z 30005KT M06/M06 A3029 RMK A01 T10561064  RH  094%=      5-min Rain = 0
KEA1 090924Z 30005KT M06/M06 A3029 RMK A01 T10571064  RH  094%=      5-min Rain = 0
KEA1 090925Z 30005KT M06/M06 A3029 RMK A01 T10561064  RH  094%=      5-min Rain = 0
KEA1 090926Z 30005KT M06/M06 A3029 RMK A01 T10561064  RH  094%=      5-min Rain = 0
KEA1 090927Z 29005KT M06/M07 A3029 RMK A01 T10571065  RH  094%=      5-min Rain = 0
KEA1 090928Z 29005KT M06/M07 A3029 RMK A01 T10571065  RH  094%=      5-min Rain = 0
KEA1 090929Z 30005KT M06/M07 A3029 RMK A01 T10571065  RH  094%=      5-min Rain = 0
KEA1 090930Z 30005KT M06/M07 A3029 RMK A01 T10571065  RH  094%=      5-min Rain = 0
KEA1 090931Z 30005KT M06/M07 A3029 RMK A01 T10571065  RH  094%=      5-min Rain = 0
KEA1 090932Z 30005KT M06/M07 A3029 RMK A01 T10571066  RH  094%=      5-min Rain = 0
KEA1 090933Z 30004KT M06/M07 A3029 RMK A01 T10571065  RH  094%=      5-min Rain = 0
KEA1 090934Z 30004KT M06/M07 A3029 RMK A01 T10571065  RH  094%=      5-min Rain = 0
KEA1 090935Z 31004KT M06/M07 A3029 RMK A01 T10571065  RH  094%=      5-min Rain = 0
KEA1 090936Z 31004KT M06/M07 A3029 RMK A01 T10571065  RH  094%=      5-min Rain = 0
KEA1 090937Z 30004KT M06/M07 A3029 RMK A01 T10571065  RH  094%=      5-min Rain = 0
KEA1 090938Z 30004KT M06/M07 A3029 RMK A01 T10571065  RH  094%=      5-min Rain = 0
KEA1 090939Z 30004KT M06/M06 A3029 RMK A01 T10561064  RH  094%=      5-min Rain = 0
KEA1 090940Z 30004KT M06/M06 A3029 RMK A01 T10561064  RH  094%=      5-min Rain = 0
KEA1 090941Z 30004KT M06/M06 A3029 RMK A01 T10551063  RH  094%=      5-min Rain = 0
KEA1 090942Z 30004KT M06/M06 A3029 RMK A01 T10551063  RH  094%=      5-min Rain = 0
KEA1 090943Z 31004KT M06/M06 A3029 RMK A01 T10551063  RH  094%=      5-min Rain = 0
KEA1 090944Z 31005KT M06/M06 A3029 RMK A01 T10551062  RH  094%=      5-min Rain = 0
KEA1 090945Z 31005KT M06/M06 A3029 RMK A01 T10551063  RH  094%=      5-min Rain = 0
KEA1 090946Z 31005KT M06/M06 A3029 RMK A01 T10551063  RH  094%=      5-min Rain = 0
KEA1 090947Z 30005KT M06/M06 A3029 RMK A01 T10551063  RH  094%=      5-min Rain = 0
KEA1 090948Z 30005KT M06/M06 A3029 RMK A01 T10551063  RH  094%=      5-min Rain = 0
KEA1 090949Z 30005KT M06/M06 A3029 RMK A01 T10551063  RH  094%=      5-min Rain = 0
KEA1 090950Z 30005KT M06/M06 A3029 RMK A01 T10551063  RH  094%=      5-min Rain = 0
KEA1 090951Z 30005KT M06/M06 A3029 RMK A01 T10551063  RH  094%=      5-min Rain = 0
KEA1 090952Z 30005KT M06/M06 A3029 RMK A01 T10551063  RH  094%=      5-min Rain = 0
KEA1 090953Z 31005KT M05/M06 A3029 RMK A01 T10541062  RH  094%=      5-min Rain = 0
KEA1 090954Z 31005KT M06/M06 A3029 RMK A01 T10551063  RH  094%=      5-min Rain = 0
KEA1 090955Z 31005KT M05/M06 A3029 RMK A01 T10541063  RH  094%=      5-min Rain = 0
KEA1 090956Z 30006KT M06/M06 A3029 RMK A01 T10551063  RH  094%=      5-min Rain = 0
KEA1 090957Z 30006KT M05/M06 A3029 RMK A01 T10541063  RH  094%=      5-min Rain = 0
KEA1 090958Z 30006KT M06/M06 A3029 RMK A01 T10551063  RH  094%=      5-min Rain = 0
KEA1 090959Z 30006KT M06/M06 A303 RMK A01 T10551064  RH  094%=      5-min Rain = 0
KEA1 091000Z 30006KT M06/M06 A303 RMK A01 T10551063  RH  094%=      5-min Rain = 0
KEA1 091001Z 31006KT M06/M06 A303 RMK A01 T10551063  RH  094%=      5-min Rain = 0
KEA1 091002Z 30006KT M05/M06 A303 RMK A01 T10541063  RH  094%=      5-min Rain = 0
KEA1 091003Z 30006KT M06/M06 A3029 RMK A01 T10551064  RH  094%=      5-min Rain = 0
KEA1 091004Z 30006KT M06/M06 A3029 RMK A01 T10551063  RH  094%=      5-min Rain = 0
KEA1 091005Z 30006KT M06/M06 A3029 RMK A01 T10551063  RH  094%=      5-min Rain = 0
KEA1 091006Z 30005KT M06/M06 A3029 RMK A01 T10551064  RH  094%=      5-min Rain = 0
KEA1 091007Z 30005KT M06/M06 A3029 RMK A01 T10561064  RH  094%=      5-min Rain = 0
KEA1 091008Z 29005KT M06/M07 A3029 RMK A01 T10561065  RH  093%=      5-min Rain = 0
KEA1 091009Z 29005KT M06/M07 A3029 RMK A01 T10571066  RH  093%=      5-min Rain = 0
KEA1 091010Z 29005KT M06/M07 A3029 RMK A01 T10581067  RH  093%=      5-min Rain = 0
KEA1 091011Z 29005KT M06/M07 A3029 RMK A01 T10571067  RH  093%=      5-min Rain = 0
KEA1 091012Z 30006KT M06/M07 A3029 RMK A01 T10581067  RH  093%=      5-min Rain = 0
KEA1 091013Z 30005KT M06/M07 A3029 RMK A01 T10581067  RH  093%=      5-min Rain = 0
KEA1 091014Z 30005KT M06/M07 A3029 RMK A01 T10581067  RH  093%=      5-min Rain = 0
KEA1 091015Z 29005KT M06/M07 A3029 RMK A01 T10581067  RH  093%=      5-min Rain = 0
KEA1 091016Z 29005KT M06/M07 A3029 RMK A01 T10581067  RH  093%=      5-min Rain = 0
KEA1 091017Z 28005KT M06/M07 A3029 RMK A01 T10591068  RH  093%=      5-min Rain = 0
KEA1 091018Z 29005KT M06/M07 A3029 RMK A01 T10601069  RH  093%=      5-min Rain = 0
KEA1 091019Z 29005KT M06/M07 A3029 RMK A01 T10601069  RH  093%=      5-min Rain = 0
KEA1 091020Z 29005KT M06/M07 A3029 RMK A01 T10591068  RH  093%=      5-min Rain = 0
KEA1 091021Z 29005KT M06/M07 A3029 RMK A01 T10601069  RH  093%=      5-min Rain = 0
KEA1 091022Z 29005KT M06/M07 A3029 RMK A01 T10591068  RH  093%=      5-min Rain = 0
KEA1 091023Z 28006KT M06/M07 A3029 RMK A01 T10591069  RH  093%=      5-min Rain = 0
KEA1 091024Z 29006KT M06/M07 A3029 RMK A01 T10601069  RH  093%=      5-min Rain = 0
KEA1 091025Z 29006KT M06/M07 A3029 RMK A01 T10591068  RH  093%=      5-min Rain = 0
KEA1 091026Z 29006KT M06/M07 A3029 RMK A01 T10601069  RH  093%=      5-min Rain = 0
KEA1 091027Z 30006KT M06/M07 A3029 RMK A01 T10601069  RH  093%=      5-min Rain = 0
KEA1 091028Z 30006KT M06/M07 A3029 RMK A01 T10601069  RH  093%=      5-min Rain = 0
KEA1 091029Z 29006KT M06/M07 A3029 RMK A01 T10591069  RH  093%=      5-min Rain = 0
KEA1 091030Z 28006KT M06/M07 A3029 RMK A01 T10601069  RH  093%=      5-min Rain = 0
KEA1 091031Z 29006KT M06/M07 A3029 RMK A01 T10601070  RH  093%=      5-min Rain = 0
KEA1 091032Z 29005KT M06/M07 A3029 RMK A01 T10601070  RH  093%=      5-min Rain = 0
KEA1 091033Z 29006KT M06/M07 A3029 RMK A01 T10601070  RH  093%=      5-min Rain = 0
KEA1 091034Z 29006KT M06/M07 A3029 RMK A01 T10601070  RH  093%=      5-min Rain = 0
KEA1 091035Z 29006KT M06/M07 A3029 RMK A01 T10611070  RH  093%=      5-min Rain = 0
KEA1 091036Z 29006KT M06/M07 A3029 RMK A01 T10611071  RH  093%=      5-min Rain = 0
KEA1 091037Z 29006KT M06/M07 A3029 RMK A01 T10621071  RH  093%=      5-min Rain = 0
KEA1 091038Z 29006KT M06/M07 A3029 RMK A01 T10621072  RH  093%=      5-min Rain = 0
KEA1 091039Z 29006KT M06/M07 A3029 RMK A01 T10631072  RH  093%=      5-min Rain = 0
KEA1 091040Z 29006KT M06/M07 A3029 RMK A01 T10631073  RH  093%=      5-min Rain = 0
KEA1 091041Z 29006KT M06/M07 A3029 RMK A01 T10631073  RH  093%=      5-min Rain = 0
KEA1 091042Z 28006KT M06/M07 A3029 RMK A01 T10641074  RH  093%=      5-min Rain = 0
KEA1 091043Z 27006KT M06/M07 A3029 RMK A01 T10641074  RH  093%=      5-min Rain = 0
KEA1 091044Z 28006KT M06/M07 A3029 RMK A01 T10641073  RH  093%=      5-min Rain = 0
KEA1 091045Z 28006KT M06/M07 A3029 RMK A01 T10631073  RH  093%=      5-min Rain = 0
KEA1 091046Z 29006KT M06/M07 A3029 RMK A01 T10621071  RH  093%=      5-min Rain = 0
KEA1 091047Z 29006KT M06/M07 A3029 RMK A01 T10611070  RH  094%=      5-min Rain = 0
KEA1 091048Z 29006KT M06/M07 A3029 RMK A01 T10611070  RH  093%=      5-min Rain = 0
KEA1 091049Z 30006KT M06/M07 A3029 RMK A01 T10611071  RH  093%=      5-min Rain = 0
KEA1 091050Z 29005KT M06/M07 A3029 RMK A01 T10621071  RH  093%=      5-min Rain = 0
KEA1 091051Z 30005KT M06/M07 A3029 RMK A01 T10631072  RH  093%=      5-min Rain = 0
KEA1 091052Z 30006KT M06/M07 A3029 RMK A01 T10631073  RH  093%=      5-min Rain = 0
KEA1 091053Z 30005KT M06/M07 A3029 RMK A01 T10631073  RH  093%=      5-min Rain = 0
KEA1 091054Z 30005KT M06/M07 A3029 RMK A01 T10641074  RH  093%=      5-min Rain = 0
KEA1 091055Z 30005KT M06/M07 A3029 RMK A01 T10631073  RH  093%=      5-min Rain = 0
KEA1 091056Z 30005KT M06/M07 A3029 RMK A01 T10641073  RH  093%=      5-min Rain = 0
KEA1 091057Z 30005KT M06/M07 A3029 RMK A01 T10631073  RH  093%=      5-min Rain = 0
KEA1 091058Z 30005KT M06/M07 A3029 RMK A01 T10641073  RH  093%=      5-min Rain = 0
KEA1 091059Z 30005KT M06/M07 A3029 RMK A01 T10631073  RH  093%=      5-min Rain = 0
KEA1 091100Z 30005KT M06/M07 A3029 RMK A01 T10631073  RH  093%=      5-min Rain = 0
KEA1 091101Z 30005KT M06/M07 A3029 RMK A01 T10631073  RH  093%=      5-min Rain = 0
KEA1 091102Z 30005KT M06/M07 A3029 RMK A01 T10631073  RH  093%=      5-min Rain = 0
KEA1 091103Z 29005KT M06/M07 A3029 RMK A01 T10631073  RH  093%=      5-min Rain = 0
KEA1 091104Z 29005KT M06/M07 A3029 RMK A01 T10631073  RH  093%=      5-min Rain = 0
KEA1 091105Z 30005KT M06/M07 A3029 RMK A01 T10631073  RH  093%=      5-min Rain = 0
KEA1 091106Z 30005KT M06/M07 A3029 RMK A01 T10631073  RH  093%=      5-min Rain = 0
KEA1 091107Z 30005KT M06/M07 A3029 RMK A01 T10631073  RH  093%=      5-min Rain = 0
KEA1 091108Z 29005KT M06/M07 A3029 RMK A01 T10631073  RH  093%=      5-min Rain = 0
KEA1 091109Z 29005KT M06/M07 A3029 RMK A01 T10641073  RH  093%=      5-min Rain = 0
KEA1 091110Z 30005KT M06/M07 A3029 RMK A01 T10631073  RH  093%=      5-min Rain = 0
KEA1 091111Z 30005KT M06/M07 A3029 RMK A01 T10641073  RH  093%=      5-min Rain = 0
KEA1 091112Z 29005KT M06/M07 A3029 RMK A01 T10641073  RH  093%=      5-min Rain = 0
KEA1 091113Z 30005KT M06/M07 A3029 RMK A01 T10641074  RH  093%=      5-min Rain = 0
KEA1 091114Z 30005KT M06/M07 A3029 RMK A01 T10641074  RH  093%=      5-min Rain = 0
KEA1 091115Z 30004KT M06/M07 A3029 RMK A01 T10641074  RH  093%=      5-min Rain = 0
KEA1 091116Z 30004KT M06/M07 A3029 RMK A01 T10641074  RH  093%=      5-min Rain = 0
KEA1 091117Z 29004KT M06/M07 A3029 RMK A01 T10641073  RH  093%=      5-min Rain = 0
KEA1 091118Z 30005KT M06/M07 A3029 RMK A01 T10641074  RH  093%=      5-min Rain = 0
KEA1 091119Z 30005KT M06/M07 A3029 RMK A01 T10641073  RH  093%=      5-min Rain = 0
KEA1 091120Z 30005KT M06/M07 A3029 RMK A01 T10641073  RH  093%=      5-min Rain = 0
KEA1 091121Z 29005KT M06/M07 A3029 RMK A01 T10641073  RH  093%=      5-min Rain = 0
KEA1 091122Z 29005KT M06/M07 A3029 RMK A01 T10641074  RH  093%=      5-min Rain = 0
KEA1 091123Z 29004KT M06/M07 A3029 RMK A01 T10641073  RH  093%=      5-min Rain = 0
KEA1 091124Z 29005KT M06/M07 A3029 RMK A01 T10631073  RH  093%=      5-min Rain = 0
KEA1 091125Z 29005KT M06/M07 A3029 RMK A01 T10631072  RH  093%=      5-min Rain = 0
KEA1 091126Z 29005KT M06/M07 A3029 RMK A01 T10631072  RH  093%=      5-min Rain = 0
KEA1 091127Z 29005KT M06/M07 A3029 RMK A01 T10621071  RH  093%=      5-min Rain = 0
KEA1 091128Z 29005KT M06/M07 A3029 RMK A01 T10621071  RH  093%=      5-min Rain = 0
KEA1 091129Z 30005KT M06/M07 A3029 RMK A01 T10621071  RH  093%=      5-min Rain = 0
KEA1 091130Z 30005KT M06/M07 A3029 RMK A01 T10621071  RH  093%=      5-min Rain = 0
KEA1 091131Z 29005KT M06/M07 A3029 RMK A01 T10621071  RH  093%=      5-min Rain = 0
KEA1 091132Z 29005KT M06/M07 A3029 RMK A01 T10621071  RH  093%=      5-min Rain = 0
KEA1 091133Z 29005KT M06/M07 A3029 RMK A01 T10621071  RH  093%=      5-min Rain = 0
KEA1 091134Z 28005KT M06/M07 A3029 RMK A01 T10621071  RH  093%=      5-min Rain = 0
KEA1 091135Z 28005KT M06/M07 A3029 RMK A01 T10621071  RH  093%=      5-min Rain = 0
KEA1 091136Z 27005KT M06/M07 A3029 RMK A01 T10621071  RH  093%=      5-min Rain = 0
KEA1 091137Z 27005KT M06/M07 A3029 RMK A01 T10621071  RH  093%=      5-min Rain = 0
KEA1 091138Z 27005KT M06/M07 A3029 RMK A01 T10621072  RH  093%=      5-min Rain = 0
KEA1 091139Z 27005KT M06/M07 A3029 RMK A01 T10621072  RH  093%=      5-min Rain = 0
KEA1 091140Z 27005KT M06/M07 A3029 RMK A01 T10621072  RH  093%=      5-min Rain = 0
KEA1 091141Z 27005KT M06/M07 A3029 RMK A01 T10621071  RH  093%=      5-min Rain = 0
KEA1 091142Z 27005KT M06/M07 A3029 RMK A01 T10621071  RH  093%=      5-min Rain = 0
KEA1 091143Z 27005KT M06/M07 A3029 RMK A01 T10621071  RH  093%=      5-min Rain = 0
KEA1 091144Z 27005KT M06/M07 A3029 RMK A01 T10621071  RH  093%=      5-min Rain = 0
KEA1 091145Z 28005KT M06/M07 A3029 RMK A01 T10621071  RH  093%=      5-min Rain = 0
KEA1 091146Z 28005KT M06/M07 A3029 RMK A01 T10611070  RH  093%=      5-min Rain = 0
KEA1 091147Z 27005KT M06/M07 A3029 RMK A01 T10601069  RH  094%=      5-min Rain = 0
KEA1 091148Z 27005KT M06/M07 A3029 RMK A01 T10601068  RH  094%=      5-min Rain = 0
KEA1 091149Z 27005KT M06/M07 A3029 RMK A01 T10591068  RH  094%=      5-min Rain = 0
KEA1 091150Z 27005KT M06/M07 A3029 RMK A01 T10581067  RH  094%=      5-min Rain = 0
KEA1 091151Z 27005KT M06/M07 A3029 RMK A01 T10591067  RH  094%=      5-min Rain = 0
KEA1 091152Z 27005KT M06/M07 A3029 RMK A01 T10591068  RH  093%=      5-min Rain = 0
KEA1 091153Z 27005KT M06/M07 A3029 RMK A01 T10591068  RH  093%=      5-min Rain = 0
KEA1 091154Z 27005KT M06/M07 A3029 RMK A01 T10591068  RH  093%=      5-min Rain = 0
KEA1 091155Z 27005KT M06/M07 A3029 RMK A01 T10591069  RH  093%=      5-min Rain = 0
KEA1 091156Z 27005KT M06/M07 A303 RMK A01 T10591069  RH  093%=      5-min Rain = 0
KEA1 091157Z 27005KT M06/M07 A303 RMK A01 T10601069  RH  093%=      5-min Rain = 0
KEA1 091158Z 27005KT M06/M07 A303 RMK A01 T10601070  RH  093%=      5-min Rain = 0
KEA1 091159Z 27005KT M06/M07 A303 RMK A01 T10611070  RH  093%=      5-min Rain = 0
KEA1 091200Z 27005KT M06/M07 A303 RMK A01 T10601069  RH  093%=      5-min Rain = 0
KEA1 091201Z 27005KT M06/M07 A303 RMK A01 T10611070  RH  093%=      5-min Rain = 0
KEA1 091202Z 27005KT M06/M07 A303 RMK A01 T10601069  RH  093%=      5-min Rain = 0
KEA1 091203Z 27004KT M06/M07 A303 RMK A01 T10611070  RH  093%=      5-min Rain = 0
KEA1 091204Z 27005KT M06/M07 A303 RMK A01 T10611070  RH  093%=      5-min Rain = 0
KEA1 091205Z 27005KT M06/M07 A303 RMK A01 T10611070  RH  093%=      5-min Rain = 0
KEA1 091206Z 27005KT M06/M07 A303 RMK A01 T10611070  RH  093%=      5-min Rain = 0
KEA1 091207Z 27005KT M06/M07 A303 RMK A01 T10601069  RH  093%=      5-min Rain = 0
KEA1 091208Z 27005KT M06/M07 A303 RMK A01 T10601070  RH  093%=      5-min Rain = 0
KEA1 091209Z 27005KT M06/M07 A303 RMK A01 T10611070  RH  093%=      5-min Rain = 0
KEA1 091210Z 27005KT M06/M07 A303 RMK A01 T10611070  RH  093%=      5-min Rain = 0
KEA1 091211Z 27005KT M06/M07 A303 RMK A01 T10611070  RH  093%=      5-min Rain = 0
KEA1 091212Z 28005KT M06/M07 A303 RMK A01 T10611070  RH  093%=      5-min Rain = 0
KEA1 091213Z 27005KT M06/M07 A303 RMK A01 T10611070  RH  093%=      5-min Rain = 0
KEA1 091214Z 27005KT M06/M07 A303 RMK A01 T10621071  RH  093%=      5-min Rain = 0
KEA1 091215Z 28005KT M06/M07 A303 RMK A01 T10611071  RH  093%=      5-min Rain = 0
KEA1 091216Z 28004KT M06/M07 A303 RMK A01 T10621071  RH  093%=      5-min Rain = 0
KEA1 091217Z 28004KT M06/M07 A303 RMK A01 T10611070  RH  093%=      5-min Rain = 0
KEA1 091218Z 28004KT M06/M07 A303 RMK A01 T10621071  RH  093%=      5-min Rain = 0
KEA1 091219Z 27004KT M06/M07 A303 RMK A01 T10611070  RH  093%=      5-min Rain = 0
KEA1 091220Z 28005KT M06/M07 A303 RMK A01 T10611070  RH  093%=      5-min Rain = 0
KEA1 091221Z 28005KT M06/M07 A303 RMK A01 T10601069  RH  093%=      5-min Rain = 0
KEA1 091222Z 28005KT M06/M07 A303 RMK A01 T10611069  RH  093%=      5-min Rain = 0
KEA1 091223Z 28005KT M06/M07 A303 RMK A01 T10611070  RH  093%=      5-min Rain = 0
KEA1 091224Z 28005KT M06/M07 A303 RMK A01 T10601070  RH  093%=      5-min Rain = 0
KEA1 091225Z 28005KT M06/M07 A303 RMK A01 T10611070  RH  093%=      5-min Rain = 0
KEA1 091226Z 29005KT M06/M07 A303 RMK A01 T10601070  RH  093%=      5-min Rain = 0
KEA1 091227Z 29004KT M06/M07 A303 RMK A01 T10611070  RH  093%=      5-min Rain = 0
KEA1 091228Z 29005KT M06/M07 A3031 RMK A01 T10611070  RH  093%=      5-min Rain = 0
KEA1 091229Z 29005KT M06/M07 A3031 RMK A01 T10611071  RH  093%=      5-min Rain = 0
KEA1 091230Z 28005KT M06/M07 A3031 RMK A01 T10611071  RH  093%=      5-min Rain = 0
KEA1 091231Z 29005KT M06/M07 A3031 RMK A01 T10621072  RH  093%=      5-min Rain = 0
KEA1 091232Z 29005KT M06/M07 A3031 RMK A01 T10621071  RH  093%=      5-min Rain = 0
KEA1 091233Z 29005KT M06/M07 A3031 RMK A01 T10621071  RH  093%=      5-min Rain = 0
KEA1 091234Z 29004KT M06/M07 A3031 RMK A01 T10621071  RH  093%=      5-min Rain = 0
KEA1 091235Z 28004KT M06/M07 A3031 RMK A01 T10621071  RH  093%=      5-min Rain = 0
KEA1 091236Z 28004KT M06/M07 A3031 RMK A01 T10621071  RH  093%=      5-min Rain = 0
KEA1 091237Z 28003KT M06/M07 A3031 RMK A01 T10621071  RH  093%=      5-min Rain = 0
KEA1 091238Z 28003KT M06/M07 A3031 RMK A01 T10621071  RH  093%=      5-min Rain = 0
KEA1 091239Z 28004KT M06/M07 A3031 RMK A01 T10621071  RH  093%=      5-min Rain = 0
KEA1 091240Z 28004KT M06/M07 A3031 RMK A01 T10621071  RH  093%=      5-min Rain = 0
KEA1 091241Z 28004KT M06/M07 A3031 RMK A01 T10621071  RH  093%=      5-min Rain = 0
KEA1 091242Z 27004KT M06/M07 A3031 RMK A01 T10621072  RH  093%=      5-min Rain = 0
KEA1 091243Z 27005KT M06/M07 A3031 RMK A01 T10631072  RH  093%=      5-min Rain = 0
KEA1 091244Z 27005KT M06/M07 A3031 RMK A01 T10631073  RH  093%=      5-min Rain = 0
KEA1 091245Z 27005KT M06/M07 A3031 RMK A01 T10631073  RH  093%=      5-min Rain = 0
KEA1 091246Z 27004KT M06/M07 A3031 RMK A01 T10631073  RH  093%=      5-min Rain = 0
KEA1 091247Z 27004KT M06/M07 A3031 RMK A01 T10641074  RH  093%=      5-min Rain = 0
KEA1 091248Z 27004KT M06/M07 A3031 RMK A01 T10641074  RH  093%=      5-min Rain = 0
KEA1 091249Z 27004KT M07/M08 A3031 RMK A01 T10651075  RH  093%=      5-min Rain = 0
KEA1 091250Z 27004KT M07/M07 A3031 RMK A01 T10651074  RH  093%=      5-min Rain = 0
KEA1 091251Z 28004KT M06/M07 A3032 RMK A01 T10641074  RH  093%=      5-min Rain = 0
KEA1 091252Z 28004KT M06/M07 A3032 RMK A01 T10641074  RH  093%=      5-min Rain = 0
KEA1 091253Z 28004KT M06/M07 A3032 RMK A01 T10641074  RH  093%=      5-min Rain = 0
KEA1 091254Z 27004KT M07/M07 A3032 RMK A01 T10651074  RH  093%=      5-min Rain = 0
KEA1 091255Z 28004KT M07/M07 A3032 RMK A01 T10651074  RH  093%=      5-min Rain = 0
KEA1 091256Z 28005KT M06/M07 A3032 RMK A01 T10641074  RH  093%=      5-min Rain = 0
KEA1 091257Z 28005KT M06/M07 A3032 RMK A01 T10641074  RH  093%=      5-min Rain = 0
KEA1 091258Z 28005KT M06/M07 A3032 RMK A01 T10641074  RH  093%=      5-min Rain = 0
KEA1 091259Z 28004KT M06/M07 A3032 RMK A01 T10641074  RH  093%=      5-min Rain = 0
KEA1 091300Z 27004KT M06/M07 A3032 RMK A01 T10641074  RH  093%=      5-min Rain = 0
KEA1 091301Z 27005KT M06/M07 A3032 RMK A01 T10641074  RH  093%=      5-min Rain = 0
KEA1 091302Z 27005KT M06/M07 A3032 RMK A01 T10641074  RH  093%=      5-min Rain = 0
KEA1 091303Z 27005KT M06/M07 A3032 RMK A01 T10641074  RH  093%=      5-min Rain = 0
KEA1 091304Z 27004KT M06/M07 A3032 RMK A01 T10641074  RH  093%=      5-min Rain = 0
KEA1 091305Z 27004KT M06/M07 A3032 RMK A01 T10641074  RH  093%=      5-min Rain = 0
KEA1 091306Z 27003KT M06/M07 A3032 RMK A01 T10641074  RH  093%=      5-min Rain = 0
KEA1 091307Z 26003KT M07/M08 A3032 RMK A01 T10651075  RH  093%=      5-min Rain = 0
KEA1 091308Z 26004KT M06/M07 A3032 RMK A01 T10641074  RH  093%=      5-min Rain = 0
KEA1 091309Z 26004KT M06/M07 A3032 RMK A01 T10641073  RH  093%=      5-min Rain = 0
KEA1 091310Z 26004KT M06/M07 A3032 RMK A01 T10621071  RH  093%=      5-min Rain = 0
KEA1 091311Z 26004KT M06/M07 A3032 RMK A01 T10621071  RH  093%=      5-min Rain = 0
KEA1 091312Z 26004KT M06/M07 A3032 RMK A01 T10621071  RH  093%=      5-min Rain = 0
KEA1 091313Z 26005KT M06/M07 A3032 RMK A01 T10621072  RH  093%=      5-min Rain = 0
KEA1 091314Z 26005KT M06/M07 A3032 RMK A01 T10621071  RH  093%=      5-min Rain = 0
KEA1 091315Z 25005KT M06/M07 A3032 RMK A01 T10621071  RH  093%=      5-min Rain = 0
KEA1 091316Z 25004KT M06/M07 A3032 RMK A01 T10621071  RH  093%=      5-min Rain = 0
KEA1 091317Z 25004KT M06/M07 A3032 RMK A01 T10621072  RH  093%=      5-min Rain = 0
KEA1 091318Z 25004KT M06/M07 A3032 RMK A01 T10621072  RH  093%=      5-min Rain = 0
KEA1 091319Z 25004KT M06/M07 A3032 RMK A01 T10621071  RH  093%=      5-min Rain = 0
KEA1 091320Z 26004KT M06/M07 A3032 RMK A01 T10611070  RH  093%=      5-min Rain = 0
KEA1 091321Z 26004KT M06/M07 A3032 RMK A01 T10611070  RH  093%=      5-min Rain = 0
KEA1 091322Z 26004KT M06/M07 A3032 RMK A01 T10601069  RH  093%=      5-min Rain = 0
KEA1 091323Z 26005KT M06/M07 A3032 RMK A01 T10601069  RH  093%=      5-min Rain = 0
KEA1 091324Z 26005KT M06/M07 A3032 RMK A01 T10601068  RH  094%=      5-min Rain = 0
KEA1 091325Z 27005KT M06/M07 A3033 RMK A01 T10601069  RH  093%=      5-min Rain = 0
KEA1 091326Z 26006KT M06/M07 A3033 RMK A01 T10591068  RH  093%=      5-min Rain = 0
KEA1 091327Z 27006KT M06/M07 A3033 RMK A01 T10601069  RH  093%=      5-min Rain = 0
KEA1 091328Z 27006KT M06/M07 A3033 RMK A01 T10591068  RH  093%=      5-min Rain = 0
KEA1 091329Z 27006KT M06/M07 A3033 RMK A01 T10601069  RH  093%=      5-min Rain = 0
KEA1 091330Z 27005KT M06/M07 A3033 RMK A01 T10591068  RH  093%=      5-min Rain = 0
KEA1 091331Z 27005KT M06/M07 A3033 RMK A01 T10601069  RH  093%=      5-min Rain = 0
KEA1 091332Z 27005KT M06/M07 A3033 RMK A01 T10601069  RH  093%=      5-min Rain = 0
KEA1 091333Z 27005KT M06/M07 A3033 RMK A01 T10591068  RH  093%=      5-min Rain = 0
KEA1 091334Z 26004KT M06/M07 A3033 RMK A01 T10591068  RH  094%=      5-min Rain = 0
KEA1 091335Z 26005KT M06/M07 A3033 RMK A01 T10581067  RH  094%=      5-min Rain = 0
KEA1 091336Z 26004KT M06/M07 A3033 RMK A01 T10581066  RH  094%=      5-min Rain = 0
KEA1 091337Z 26005KT M06/M07 A3033 RMK A01 T10581067  RH  094%=      5-min Rain = 0
KEA1 091338Z 26005KT M06/M07 A3033 RMK A01 T10571066  RH  094%=      5-min Rain = 0
KEA1 091339Z 26005KT M06/M07 A3033 RMK A01 T10571066  RH  094%=      5-min Rain = 0
KEA1 091340Z 27005KT M06/M07 A3033 RMK A01 T10571066  RH  094%=      5-min Rain = 0
KEA1 091341Z 27005KT M06/M07 A3033 RMK A01 T10571066  RH  094%=      5-min Rain = 0
KEA1 091342Z 26004KT M06/M07 A3033 RMK A01 T10571065  RH  094%=      5-min Rain = 0
KEA1 091343Z 25004KT M06/M07 A3033 RMK A01 T10571066  RH  094%=      5-min Rain = 0
KEA1 091344Z 25004KT M06/M07 A3033 RMK A01 T10571065  RH  094%=      5-min Rain = 0
KEA1 091345Z 24004KT M06/M07 A3033 RMK A01 T10571066  RH  094%=      5-min Rain = 0
KEA1 091346Z 25004KT M06/M07 A3033 RMK A01 T10571065  RH  094%=      5-min Rain = 0
KEA1 091347Z 25004KT M06/M07 A3033 RMK A01 T10561065  RH  094%=      5-min Rain = 0
KEA1 091348Z 25004KT M06/M07 A3033 RMK A01 T10561065  RH  094%=      5-min Rain = 0
KEA1 091349Z 26004KT M06/M06 A3033 RMK A01 T10561064  RH  094%=      5-min Rain = 0
KEA1 091350Z 26004KT M06/M06 A3033 RMK A01 T10551064  RH  094%=      5-min Rain = 0
KEA1 091351Z 28005KT M06/M06 A3034 RMK A01 T10551064  RH  094%=      5-min Rain = 0
KEA1 091352Z 27005KT M06/M06 A3034 RMK A01 T10551063  RH  094%=      5-min Rain = 0
KEA1 091353Z 27004KT M06/M06 A3034 RMK A01 T10551064  RH  094%=      5-min Rain = 0
KEA1 091354Z 27004KT M06/M06 A3034 RMK A01 T10551064  RH  094%=      5-min Rain = 0
KEA1 091355Z 28005KT M06/M06 A3034 RMK A01 T10551064  RH  094%=      5-min Rain = 0
KEA1 091356Z 27005KT M06/M06 A3034 RMK A01 T10551064  RH  093%=      5-min Rain = 0
KEA1 091357Z 27006KT M06/M06 A3034 RMK A01 T10551064  RH  093%=      5-min Rain = 0
KEA1 091358Z 27005KT M06/M07 A3034 RMK A01 T10551065  RH  093%=      5-min Rain = 0
KEA1 091359Z 27004KT M06/M07 A3034 RMK A01 T10561065  RH  093%=      5-min Rain = 0
KEA1 091400Z 27005KT M06/M07 A3034 RMK A01 T10561065  RH  093%=      5-min Rain = 0
KEA1 091401Z 28005KT M06/M07 A3035 RMK A01 T10561065  RH  093%=      5-min Rain = 0
KEA1 091402Z 28005KT M06/M07 A3035 RMK A01 T10561065  RH  093%=      5-min Rain = 0
KEA1 091403Z 27004KT M06/M07 A3035 RMK A01 T10561065  RH  093%=      5-min Rain = 0
KEA1 091404Z 27005KT M06/M07 A3035 RMK A01 T10561065  RH  093%=      5-min Rain = 0
KEA1 091405Z 28005KT M06/M07 A3035 RMK A01 T10561066  RH  093%=      5-min Rain = 0
KEA1 091406Z 27006KT M06/M07 A3035 RMK A01 T10561066  RH  093%=      5-min Rain = 0
KEA1 091407Z 27006KT M06/M07 A3035 RMK A01 T10571067  RH  093%=      5-min Rain = 0
KEA1 091408Z 27006KT M06/M07 A3035 RMK A01 T10571067  RH  093%=      5-min Rain = 0
KEA1 091409Z 28005KT M06/M07 A3035 RMK A01 T10571068  RH  092%=      5-min Rain = 0
KEA1 091410Z 28005KT M06/M07 A3035 RMK A01 T10581068  RH  092%=      5-min Rain = 0
KEA1 091411Z 28005KT M06/M07 A3035 RMK A01 T10571068  RH  092%=      5-min Rain = 0
KEA1 091412Z 28006KT M06/M07 A3035 RMK A01 T10581068  RH  092%=      5-min Rain = 0
KEA1 091413Z 28006KT M06/M07 A3035 RMK A01 T10581068  RH  092%=      5-min Rain = 0
KEA1 091414Z 28006KT M06/M07 A3035 RMK A01 T10581068  RH  092%=      5-min Rain = 0
KEA1 091415Z 28005KT M06/M07 A3035 RMK A01 T10581069  RH  092%=      5-min Rain = 0
KEA1 091416Z 28004KT M06/M07 A3035 RMK A01 T10581069  RH  092%=      5-min Rain = 0
KEA1 091417Z 28005KT M06/M07 A3035 RMK A01 T10571067  RH  092%=      5-min Rain = 0
KEA1 091418Z 28005KT M06/M07 A3035 RMK A01 T10561066  RH  093%=      5-min Rain = 0
KEA1 091419Z 29004KT M06/M07 A3035 RMK A01 T10551066  RH  093%=      5-min Rain = 0
KEA1 091420Z 28004KT M05/M06 A3035 RMK A01 T10541064  RH  093%=      5-min Rain = 0
KEA1 091421Z 28004KT M05/M06 A3035 RMK A01 T10531063  RH  093%=      5-min Rain = 0
KEA1 091422Z 28003KT M05/M06 A3035 RMK A01 T10521062  RH  093%=      5-min Rain = 0
KEA1 091423Z 28003KT M05/M06 A3035 RMK A01 T10511061  RH  093%=      5-min Rain = 0
KEA1 091424Z 29003KT M05/M06 A3035 RMK A01 T10501060  RH  093%=      5-min Rain = 0
KEA1 091425Z 29003KT M05/M06 A3035 RMK A01 T10491059  RH  093%=      5-min Rain = 0
KEA1 091426Z 29003KT M05/M06 A3035 RMK A01 T10481058  RH  093%=      5-min Rain = 0
KEA1 091427Z 29003KT M05/M06 A3035 RMK A01 T10471057  RH  093%=      5-min Rain = 0
KEA1 091428Z 29004KT M05/M06 A3035 RMK A01 T10461057  RH  093%=      5-min Rain = 0
KEA1 091429Z 28003KT M05/M06 A3036 RMK A01 T10461056  RH  092%=      5-min Rain = 0
KEA1 091430Z 27003KT M04/M06 A3036 RMK A01 T10441055  RH  092%=      5-min Rain = 0
KEA1 091431Z 28003KT M04/M06 A3036 RMK A01 T10441055  RH  092%=      5-min Rain = 0
KEA1 091432Z 28003KT M04/M06 A3036 RMK A01 T10441056  RH  092%=      5-min Rain = 0
KEA1 091433Z 28003KT M05/M06 A3036 RMK A01 T10451058  RH  091%=      5-min Rain = 0
KEA1 091434Z 28003KT M05/M06 A3036 RMK A01 T10461059  RH  090%=      5-min Rain = 0
KEA1 091435Z 28003KT M05/M06 A3036 RMK A01 T10461059  RH  090%=      5-min Rain = 0
KEA1 091436Z 28003KT M05/M06 A3036 RMK A01 T10461059  RH  090%=      5-min Rain = 0
KEA1 091437Z 28003KT M05/M06 A3036 RMK A01 T10451058  RH  091%=      5-min Rain = 0
KEA1 091438Z 29002KT M05/M06 A3036 RMK A01 T10451057  RH  091%=      5-min Rain = 0
KEA1 091439Z 30003KT M04/M06 A3036 RMK A01 T10441057  RH  091%=      5-min Rain = 0
KEA1 091440Z 30002KT M04/M06 A3036 RMK A01 T10431056  RH  091%=      5-min Rain = 0
KEA1 091441Z 30003KT M04/M06 A3036 RMK A01 T10441056  RH  091%=      5-min Rain = 0
KEA1 091442Z 30002KT M04/M06 A3036 RMK A01 T10431056  RH  091%=      5-min Rain = 0
KEA1 091443Z 31003KT M04/M06 A3036 RMK A01 T10421055  RH  091%=      5-min Rain = 0
KEA1 091444Z 31002KT M04/M06 A3036 RMK A01 T10421055  RH  091%=      5-min Rain = 0
KEA1 091445Z 31002KT M04/M06 A3036 RMK A01 T10421055  RH  091%=      5-min Rain = 0
KEA1 091446Z 31002KT M04/M05 A3036 RMK A01 T10411054  RH  091%=      5-min Rain = 0
KEA1 091447Z 31002KT M04/M05 A3036 RMK A01 T10411054  RH  091%=      5-min Rain = 0
KEA1 091448Z 31002KT M04/M05 A3036 RMK A01 T10401053  RH  091%=      5-min Rain = 0
KEA1 091449Z 31003KT M04/M05 A3036 RMK A01 T10391052  RH  091%=      5-min Rain = 0
KEA1 091450Z 31002KT M04/M05 A3036 RMK A01 T10381051  RH  091%=      5-min Rain = 0
KEA1 091451Z 31002KT M04/M05 A3036 RMK A01 T10381051  RH  091%=      5-min Rain = 0
KEA1 091452Z 31002KT M04/M05 A3036 RMK A01 T10381050  RH  091%=      5-min Rain = 0
KEA1 091453Z 30002KT M04/M05 A3036 RMK A01 T10371050  RH  091%=      5-min Rain = 0
KEA1 091454Z 31002KT M04/M05 A3036 RMK A01 T10361049  RH  091%=      5-min Rain = 0
KEA1 091455Z 30002KT M03/M05 A3036 RMK A01 T10341047  RH  091%=      5-min Rain = 0
KEA1 091456Z 31001KT M03/M05 A3036 RMK A01 T10341047  RH  091%=      5-min Rain = 0
KEA1 091457Z 32002KT M03/M05 A3036 RMK A01 T10331046  RH  091%=      5-min Rain = 0
KEA1 091458Z 33002KT M03/M05 A3036 RMK A01 T10321046  RH  090%=      5-min Rain = 0
KEA1 091459Z 33002KT M03/M05 A3036 RMK A01 T10311045  RH  090%=      5-min Rain = 0
KEA1 091500Z 35003KT M03/M04 A3036 RMK A01 T10301044  RH  090%=      5-min Rain = 0
KEA1 091501Z 34003KT M03/M05 A3036 RMK A01 T10291045  RH  089%=      5-min Rain = 0
KEA1 091502Z 34002KT M03/M04 A3036 RMK A01 T10281043  RH  089%=      5-min Rain = 0
KEA1 091503Z 00003KT M03/M04 A3036 RMK A01 T10261041  RH  090%=      5-min Rain = 0
KEA1 091504Z 35002KT M03/M04 A3036 RMK A01 T10261041  RH  089%=      5-min Rain = 0
KEA1 091505Z 35002KT M02/M04 A3036 RMK A01 T10241040  RH  089%=      5-min Rain = 0
KEA1 091506Z 34002KT M02/M04 A3036 RMK A01 T10231038  RH  090%=      5-min Rain = 0
KEA1 091507Z 34002KT M02/M04 A3036 RMK A01 T10231039  RH  089%=      5-min Rain = 0
KEA1 091508Z 35003KT M02/M04 A3036 RMK A01 T10231039  RH  088%=      5-min Rain = 0
KEA1 091509Z 34003KT M02/M04 A3036 RMK A01 T10231040  RH  088%=      5-min Rain = 0
KEA1 091510Z 33003KT M02/M04 A3037 RMK A01 T10231039  RH  088%=      5-min Rain = 0
KEA1 091511Z 32002KT M02/M04 A3037 RMK A01 T10221040  RH  088%=      5-min Rain = 0
KEA1 091512Z 33002KT M02/M04 A3037 RMK A01 T10221039  RH  088%=      5-min Rain = 0
KEA1 091513Z 33001KT M02/M04 A3037 RMK A01 T10211037  RH  089%=      5-min Rain = 0
KEA1 091514Z 33001KT M02/M03 A3037 RMK A01 T10201034  RH  090%=      5-min Rain = 0
KEA1 091515Z 33001KT M02/M04 A3037 RMK A01 T10201036  RH  089%=      5-min Rain = 0
KEA1 091516Z 01001KT M02/M04 A3037 RMK A01 T10201036  RH  088%=      5-min Rain = 0
KEA1 091517Z 02001KT M02/M04 A3037 RMK A01 T10181035  RH  088%=      5-min Rain = 0
KEA1 091518Z 33001KT M02/M03 A3037 RMK A01 T10171034  RH  088%=      5-min Rain = 0
KEA1 091519Z 33001KT M02/M03 A3037 RMK A01 T10161033  RH  088%=      5-min Rain = 0
KEA1 091520Z 35001KT M02/M03 A3037 RMK A01 T10161034  RH  087%=      5-min Rain = 0
KEA1 091521Z 00000KT M02/M04 A3037 RMK A01 T10151035  RH  087%=      5-min Rain = 0
KEA1 091522Z 00000KT M01/M03 A3037 RMK A01 T10141032  RH  087%=      5-min Rain = 0
KEA1 091523Z 00000KT M01/M03 A3037 RMK A01 T10111029  RH  088%=      5-min Rain = 0
KEA1 091524Z 00000KT M01/M03 A3037 RMK A01 T10081027  RH  087%=      5-min Rain = 0
KEA1 091525Z 28000KT M01/M03 A3037 RMK A01 T10061028  RH  085%=      5-min Rain = 0
KEA1 091526Z 00000KT M01/M03 A3037 RMK A01 T10051028  RH  084%=      5-min Rain = 0
KEA1 091527Z 05000KT M00/M03 A3037 RMK A01 T10041029  RH  083%=      5-min Rain = 0
KEA1 091528Z 06000KT M00/M03 A3037 RMK A01 T10021029  RH  082%=      5-min Rain = 0
KEA1 091529Z 06000KT 00/M03 A3037 RMK A01 T00011027  RH  081%=      5-min Rain = 0
KEA1 091530Z 34001KT 00/M03 A3037 RMK A01 T00011029  RH  081%=      5-min Rain = 0
KEA1 091531Z 34001KT M00/M03 A3037 RMK A01 T10021032  RH  080%=      5-min Rain = 0
KEA1 091532Z 33001KT M00/M03 A3037 RMK A01 T10031032  RH  081%=      5-min Rain = 0
KEA1 091533Z 33001KT M00/M03 A3037 RMK A01 T10041032  RH  082%=      5-min Rain = 0
KEA1 091534Z 33001KT M01/M03 A3037 RMK A01 T10051031  RH  083%=      5-min Rain = 0
KEA1 091535Z 33000KT M01/M03 A3037 RMK A01 T10051029  RH  084%=      5-min Rain = 0
KEA1 091536Z 35001KT M00/M03 A3037 RMK A01 T10031026  RH  084%=      5-min Rain = 0
KEA1 091537Z 34001KT M00/M02 A3037 RMK A01 T10011024  RH  085%=      5-min Rain = 0
KEA1 091538Z 34001KT 00/02 A3037 RMK A01 T00-00-23  RH  085%=      5-min Rain = 0
KEA1 091539Z 34001KT M00/M03 A3037 RMK A01 T10011026  RH  083%=      5-min Rain = 0
KEA1 091540Z 34001KT M00/M03 A3037 RMK A01 T10021026  RH  083%=      5-min Rain = 0
KEA1 091541Z 36002KT M00/M03 A3037 RMK A01 T10011025  RH  084%=      5-min Rain = 0
KEA1 091542Z 01002KT M00/M02 A3037 RMK A01 T10011024  RH  084%=      5-min Rain = 0
KEA1 091543Z 35002KT M00/M03 A3037 RMK A01 T10011025  RH  084%=      5-min Rain = 0
KEA1 091544Z 01002KT M00/M02 A3038 RMK A01 T10011023  RH  085%=      5-min Rain = 0.01
KEA1 091545Z 02002KT 00/M02 A3038 RMK A01 T00011020  RH  086%=      5-min Rain = 0
KEA1 091546Z 02002KT 00/M02 A3038 RMK A01 T00031019  RH  085%=      5-min Rain = 0
KEA1 091547Z 34002KT 00/M02 A3038 RMK A01 T00031018  RH  085%=      5-min Rain = 0
KEA1 091548Z 33002KT 00/M02 A3038 RMK A01 T00041018  RH  085%=      5-min Rain = 0
KEA1 091549Z 31002KT 00/M02 A3038 RMK A01 T00031019  RH  085%=      5-min Rain = 0
KEA1 091550Z 32002KT 00/M02 A3038 RMK A01 T00021021  RH  085%=      5-min Rain = 0
KEA1 091551Z 33003KT 00/M02 A3038 RMK A01 T00011020  RH  086%=      5-min Rain = 0
KEA1 091552Z 31002KT 00/M02 A3038 RMK A01 T00011020  RH  086%=      5-min Rain = 0
KEA1 091553Z 32003KT 00/02 A3038 RMK A01 T00000-22  RH  085%=      5-min Rain = 0
KEA1 091554Z 33002KT M00/M02 A3038 RMK A01 T10011024  RH  085%=      5-min Rain = 0
KEA1 091555Z 33002KT M00/M02 A3038 RMK A01 T10011022  RH  086%=      5-min Rain = 0
KEA1 091556Z 32002KT 00/02 A3038 RMK A01 T00-00-20  RH  086%=      5-min Rain = 0
KEA1 091557Z 30002KT 00/02 A3038 RMK A01 T00000-21  RH  086%=      5-min Rain = 0
KEA1 091558Z 32002KT 00/02 A3038 RMK A01 T00-00-22  RH  085%=      5-min Rain = 0
KEA1 091559Z 31003KT 00/02 A3038 RMK A01 T00-00-21  RH  086%=      5-min Rain = 0
KEA1 091600Z 32003KT 00/02 A3038 RMK A01 T00000-21  RH  086%=      5-min Rain = 0
KEA1 091601Z 35003KT 00/02 A3038 RMK A01 T00-00-21  RH  086%=      5-min Rain = 0
KEA1 091602Z 00003KT 00/02 A3038 RMK A01 T00000-20  RH  086%=      5-min Rain = 0
KEA1 091603Z 35003KT 00/M02 A3038 RMK A01 T00021019  RH  086%=      5-min Rain = 0
KEA1 091604Z 34002KT 00/M02 A3038 RMK A01 T00031019  RH  085%=      5-min Rain = 0
KEA1 091605Z 00002KT 00/M02 A3038 RMK A01 T00041018  RH  085%=      5-min Rain = 0
KEA1 091606Z 01002KT 01/M02 A3038 RMK A01 T00051018  RH  084%=      5-min Rain = 0
KEA1 091607Z 36002KT 01/M02 A3038 RMK A01 T00061019  RH  083%=      5-min Rain = 0
KEA1 091608Z 34002KT 01/M02 A3038 RMK A01 T00061019  RH  083%=      5-min Rain = 0
KEA1 091609Z 35001KT 01/M02 A3038 RMK A01 T00051021  RH  083%=      5-min Rain = 0
KEA1 091610Z 34003KT 01/M02 A3038 RMK A01 T00051020  RH  084%=      5-min Rain = 0
KEA1 091611Z 34003KT 01/M02 A3038 RMK A01 T00051018  RH  084%=      5-min Rain = 0
KEA1 091612Z 35002KT 01/M02 A3038 RMK A01 T00051019  RH  084%=      5-min Rain = 0
KEA1 091613Z 34002KT 01/M02 A3038 RMK A01 T00071015  RH  085%=      5-min Rain = 0
KEA1 091614Z 34003KT 01/M01 A3038 RMK A01 T00081013  RH  086%=      5-min Rain = 0
KEA1 091615Z 33002KT 01/M02 A3039 RMK A01 T00081015  RH  084%=      5-min Rain = 0
KEA1 091616Z 32003KT 01/M02 A3039 RMK A01 T00071017  RH  084%=      5-min Rain = 0
KEA1 091617Z 33002KT 01/M02 A3039 RMK A01 T00071016  RH  085%=      5-min Rain = 0
KEA1 091618Z 32003KT 01/M02 A3039 RMK A01 T00081016  RH  085%=      5-min Rain = 0
KEA1 091619Z 32003KT 01/M02 A3039 RMK A01 T00081015  RH  085%=      5-min Rain = 0
KEA1 091620Z 33003KT 01/M01 A3039 RMK A01 T00081014  RH  085%=      5-min Rain = 0
KEA1 091621Z 32002KT 01/M01 A3039 RMK A01 T00091014  RH  085%=      5-min Rain = 0
KEA1 091622Z 33002KT 01/M01 A3038 RMK A01 T00091014  RH  085%=      5-min Rain = 0
KEA1 091623Z 33002KT 01/M02 A3038 RMK A01 T00091015  RH  084%=      5-min Rain = 0
KEA1 091624Z 31003KT 01/M01 A3038 RMK A01 T00091014  RH  085%=      5-min Rain = 0
KEA1 091625Z 34003KT 01/M01 A3038 RMK A01 T00101013  RH  085%=      5-min Rain = 0
KEA1 091626Z 33002KT 01/M01 A3038 RMK A01 T00101014  RH  084%=      5-min Rain = 0
KEA1 091627Z 34002KT 01/M01 A3038 RMK A01 T00121010  RH  085%=      5-min Rain = 0
KEA1 091628Z 01003KT 02/M01 A3038 RMK A01 T00151008  RH  085%=      5-min Rain = 0
KEA1 091629Z 00003KT 02/M01 A3038 RMK A01 T00171005  RH  085%=      5-min Rain = 0
KEA1 091630Z 01004KT 02/M01 A3038 RMK A01 T00181008  RH  083%=      5-min Rain = 0
KEA1 091631Z 02003KT 02/M01 A3038 RMK A01 T00181010  RH  082%=      5-min Rain = 0
KEA1 091632Z 01003KT 02/M01 A3038 RMK A01 T00181010  RH  082%=      5-min Rain = 0
KEA1 091633Z 00002KT 02/M01 A3038 RMK A01 T00181009  RH  083%=      5-min Rain = 0
KEA1 091634Z 00003KT 02/M01 A3038 RMK A01 T00191007  RH  083%=      5-min Rain = 0
KEA1 091635Z 01003KT 02/M01 A3038 RMK A01 T00201008  RH  082%=      5-min Rain = 0.01
KEA1 091636Z 04004KT 02/M01 A3038 RMK A01 T00201006  RH  083%=      5-min Rain = 0
KEA1 091637Z 03003KT 02/M01 A3038 RMK A01 T00201007  RH  082%=      5-min Rain = 0
KEA1 091638Z 03003KT 02/M01 A3038 RMK A01 T00211006  RH  083%=      5-min Rain = 0
KEA1 091639Z 04003KT 02/M01 A3038 RMK A01 T00211005  RH  083%=      5-min Rain = 0
KEA1 091640Z 02003KT 02/M01 A3038 RMK A01 T00211005  RH  082%=      5-min Rain = 0
KEA1 091641Z 03002KT 02/M00 A3038 RMK A01 T00241002  RH  083%=      5-min Rain = 0
KEA1 091642Z 03002KT 03/00 A3038 RMK A01 T00270001  RH  083%=      5-min Rain = 0
KEA1 091643Z 01002KT 03/00 A3038 RMK A01 T00290000  RH  082%=      5-min Rain = 0.01
KEA1 091644Z 02003KT 03/M00 A3038 RMK A01 T00291001  RH  080%=      5-min Rain = 0
KEA1 091645Z 03002KT 03/00 A3038 RMK A01 T003100-0  RH  080%=      5-min Rain = 0
KEA1 091646Z 36004KT 03/00 A3038 RMK A01 T003200-0  RH  079%=      5-min Rain = 0
KEA1 091647Z 36003KT 03/M00 A3038 RMK A01 T00311003  RH  078%=      5-min Rain = 0
KEA1 091648Z 01003KT 03/M00 A3038 RMK A01 T00311004  RH  078%=      5-min Rain = 0
KEA1 091649Z 01004KT 03/M00 A3038 RMK A01 T00311004  RH  078%=      5-min Rain = 0
KEA1 091650Z 01003KT 03/M00 A3038 RMK A01 T00311004  RH  078%=      5-min Rain = 0
KEA1 091651Z 01003KT 03/M01 A3038 RMK A01 T00301005  RH  078%=      5-min Rain = 0
KEA1 091652Z 01003KT 03/M01 A3038 RMK A01 T00301005  RH  078%=      5-min Rain = 0
KEA1 091653Z 35003KT 03/M01 A3038 RMK A01 T00301006  RH  078%=      5-min Rain = 0
KEA1 091654Z 36002KT 03/M01 A3038 RMK A01 T00301006  RH  078%=      5-min Rain = 0
KEA1 091655Z 34002KT 03/M00 A3038 RMK A01 T00301004  RH  078%=      5-min Rain = 0
KEA1 091656Z 35002KT 03/M00 A3038 RMK A01 T00321003  RH  078%=      5-min Rain = 0
KEA1 091657Z 01002KT 03/M01 A3038 RMK A01 T00331006  RH  076%=      5-min Rain = 0
KEA1 091658Z 00001KT 03/M01 A3038 RMK A01 T00321008  RH  075%=      5-min Rain = 0
KEA1 091659Z 34001KT 03/M01 A3038 RMK A01 T00331005  RH  076%=      5-min Rain = 0
KEA1 091700Z 04001KT 04/M00 A3038 RMK A01 T00351001  RH  077%=      5-min Rain = 0
KEA1 091701Z 02002KT 04/M00 A3038 RMK A01 T00371003  RH  075%=      5-min Rain = 0
KEA1 091702Z 03002KT 04/M00 A3038 RMK A01 T00371003  RH  075%=      5-min Rain = 0
KEA1 091703Z 04001KT 04/M01 A3038 RMK A01 T00371005  RH  074%=      5-min Rain = 0
KEA1 091704Z 06001KT 04/M01 A3038 RMK A01 T00351006  RH  074%=      5-min Rain = 0.01
KEA1 091705Z 05001KT 04/M01 A3038 RMK A01 T00351006  RH  074%=      5-min Rain = 0
KEA1 091706Z 34001KT 04/M01 A3038 RMK A01 T00371005  RH  074%=      5-min Rain = 0
KEA1 091707Z 00002KT 04/M01 A3038 RMK A01 T00391005  RH  073%=      5-min Rain = 0
KEA1 091708Z 34001KT 04/M00 A3038 RMK A01 T00411003  RH  073%=      5-min Rain = 0
KEA1 091709Z 32002KT 04/M01 A3038 RMK A01 T00421006  RH  071%=      5-min Rain = 0
KEA1 091710Z 01001KT 04/M01 A3038 RMK A01 T00421009  RH  070%=      5-min Rain = 0
KEA1 091711Z 01002KT 04/M01 A3038 RMK A01 T00421006  RH  071%=      5-min Rain = 0
KEA1 091712Z 02001KT 04/M01 A3038 RMK A01 T00431007  RH  070%=      5-min Rain = 0
KEA1 091713Z 02001KT 04/M01 A3038 RMK A01 T00431008  RH  070%=      5-min Rain = 0
KEA1 091714Z 02003KT 04/M00 A3038 RMK A01 T00431004  RH  071%=      5-min Rain = 0.01
KEA1 091715Z 05002KT 05/M01 A3038 RMK A01 T00451005  RH  070%=      5-min Rain = 0
KEA1 091716Z 02002KT 05/M00 A3038 RMK A01 T00461002  RH  071%=      5-min Rain = 0
KEA1 091717Z 07001KT 05/M00 A3038 RMK A01 T00471002  RH  070%=      5-min Rain = 0
KEA1 091718Z 12001KT 05/00 A3038 RMK A01 T00490001  RH  071%=      5-min Rain = 0
KEA1 091719Z 12000KT 05/M00 A3038 RMK A01 T00491002  RH  070%=      5-min Rain = 0
KEA1 091720Z 06001KT 05/M00 A3038 RMK A01 T00501001  RH  069%=      5-min Rain = 0
KEA1 091721Z 09002KT 05/00 A3038 RMK A01 T00520000  RH  069%=      5-min Rain = 0.01
KEA1 091722Z 08002KT 05/M00 A3038 RMK A01 T00521002  RH  068%=      5-min Rain = 0
KEA1 091723Z 11002KT 05/M00 A3038 RMK A01 T00501003  RH  068%=      5-min Rain = 0
KEA1 091724Z 11003KT 05/M01 A3038 RMK A01 T00491005  RH  068%=      5-min Rain = 0
KEA1 091725Z 10003KT 05/M01 A3038 RMK A01 T00481006  RH  068%=      5-min Rain = 0
KEA1 091726Z 09002KT 05/M01 A3038 RMK A01 T00481005  RH  069%=      5-min Rain = 0
KEA1 091727Z 10002KT 05/M00 A3038 RMK A01 T00481004  RH  069%=      5-min Rain = 0
KEA1 091728Z 07002KT 05/M01 A3038 RMK A01 T00481005  RH  069%=      5-min Rain = 0
KEA1 091729Z 09001KT 05/M01 A3038 RMK A01 T00471008  RH  067%=      5-min Rain = 0
KEA1 091730Z 05001KT 05/M01 A3038 RMK A01 T00461009  RH  067%=      5-min Rain = 0.01
KEA1 091731Z 03002KT 05/M00 A3038 RMK A01 T00491002  RH  070%=      5-min Rain = 0
KEA1 091732Z 03002KT 05/M01 A3038 RMK A01 T00501005  RH  068%=      5-min Rain = 0
KEA1 091733Z 05002KT 05/M01 A3038 RMK A01 T00491005  RH  068%=      5-min Rain = 0
KEA1 091734Z 09001KT 05/M01 A3038 RMK A01 T00501005  RH  068%=      5-min Rain = 0
KEA1 091735Z 10000KT 05/M01 A3038 RMK A01 T00491005  RH  068%=      5-min Rain = 0
KEA1 091736Z 09001KT 05/M00 A3038 RMK A01 T00501004  RH  068%=      5-min Rain = 0
KEA1 091737Z 09001KT 05/M01 A3038 RMK A01 T00511007  RH  066%=      5-min Rain = 0
KEA1 091738Z 10001KT 05/M01 A3038 RMK A01 T00501007  RH  067%=      5-min Rain = 0
KEA1 091739Z 15002KT 05/M01 A3038 RMK A01 T00521006  RH  066%=      5-min Rain = 0
KEA1 091740Z 09001KT 05/M01 A3038 RMK A01 T00541007  RH  065%=      5-min Rain = 0.01
KEA1 091741Z 05001KT 06/M01 A3038 RMK A01 T00561009  RH  063%=      5-min Rain = 0
KEA1 091742Z 07003KT 06/M01 A3038 RMK A01 T00551011  RH  062%=      5-min Rain = 0
KEA1 091743Z 10002KT 05/M01 A3038 RMK A01 T00541009  RH  064%=      5-min Rain = 0
KEA1 091744Z 06001KT 05/M01 A3038 RMK A01 T00541012  RH  062%=      5-min Rain = 0
KEA1 091745Z 06001KT 06/M01 A3038 RMK A01 T00561006  RH  064%=      5-min Rain = 0
KEA1 091746Z 06001KT 06/M01 A3038 RMK A01 T00581009  RH  062%=      5-min Rain = 0
KEA1 091747Z 05001KT 06/M01 A3038 RMK A01 T00571012  RH  061%=      5-min Rain = 0
KEA1 091748Z 08001KT 06/M01 A3038 RMK A01 T00571012  RH  061%=      5-min Rain = 0
KEA1 091749Z 07001KT 06/M01 A3038 RMK A01 T00591010  RH  061%=      5-min Rain = 0.01
KEA1 091750Z 07001KT 06/M01 A3038 RMK A01 T00591011  RH  060%=      5-min Rain = 0
KEA1 091751Z 03002KT 06/M01 A3038 RMK A01 T00601011  RH  061%=      5-min Rain = 0
KEA1 091752Z 02001KT 06/M01 A3038 RMK A01 T00601010  RH  061%=      5-min Rain = 0
KEA1 091753Z 11002KT 06/M01 A3038 RMK A01 T00611010  RH  060%=      5-min Rain = 0
KEA1 091754Z 11002KT 06/M01 A3038 RMK A01 T00611013  RH  059%=      5-min Rain = 0
KEA1 091755Z 13002KT 06/M01 A3038 RMK A01 T00591012  RH  060%=      5-min Rain = 0
KEA1 091756Z 10003KT 06/M01 A3038 RMK A01 T00591014  RH  059%=      5-min Rain = 0
KEA1 091757Z 06002KT 06/M02 A3038 RMK A01 T00581017  RH  058%=      5-min Rain = 0
KEA1 091758Z 06000KT 06/M02 A3038 RMK A01 T00561021  RH  058%=      5-min Rain = 0
KEA1 091759Z 08002KT 06/M02 A3038 RMK A01 T00551018  RH  059%=      5-min Rain = 0.01
KEA1 091800Z 08003KT 06/M01 A3038 RMK A01 T00561009  RH  063%=      5-min Rain = 0
KEA1 091801Z 07003KT 06/M01 A3038 RMK A01 T00571013  RH  061%=      5-min Rain = 0
KEA1 091802Z 07002KT 06/M02 A3038 RMK A01 T00571016  RH  060%=      5-min Rain = 0
KEA1 091803Z 07002KT 06/M01 A3038 RMK A01 T00571013  RH  061%=      5-min Rain = 0
KEA1 091804Z 05001KT 06/M02 A3037 RMK A01 T00581015  RH  060%=      5-min Rain = 0
KEA1 091805Z 13003KT 06/M01 A3037 RMK A01 T00581013  RH  060%=      5-min Rain = 0
KEA1 091806Z 12004KT 06/M01 A3037 RMK A01 T00591006  RH  063%=      5-min Rain = 0
KEA1 091807Z 10003KT 06/M01 A3037 RMK A01 T00601007  RH  062%=      5-min Rain = 0
KEA1 091808Z 08002KT 06/M01 A3037 RMK A01 T00581010  RH  062%=      5-min Rain = 0
KEA1 091809Z 13003KT 06/M01 A3037 RMK A01 T00571007  RH  064%=      5-min Rain = 0
KEA1 091810Z 14004KT 06/M01 A3037 RMK A01 T00591006  RH  063%=      5-min Rain = 0
KEA1 091811Z 15001KT 06/M01 A3037 RMK A01 T00591012  RH  060%=      5-min Rain = 0.01
KEA1 091812Z 13004KT 06/M01 A3037 RMK A01 T00591012  RH  061%=      5-min Rain = 0
KEA1 091813Z 12004KT 06/M02 A3037 RMK A01 T00591016  RH  059%=      5-min Rain = 0
KEA1 091814Z 15004KT 06/M02 A3037 RMK A01 T00591018  RH  058%=      5-min Rain = 0
KEA1 091815Z 14004KT 06/M02 A3037 RMK A01 T00581018  RH  058%=      5-min Rain = 0
KEA1 091816Z 14004KT 06/M02 A3037 RMK A01 T00581017  RH  059%=      5-min Rain = 0
KEA1 091817Z 11004KT 06/M02 A3037 RMK A01 T00591019  RH  057%=      5-min Rain = 0
KEA1 091818Z 10003KT 06/M03 A3037 RMK A01 T00581025  RH  055%=      5-min Rain = 0
KEA1 091819Z 09003KT 06/M02 A3037 RMK A01 T00581022  RH  057%=      5-min Rain = 0
KEA1 091820Z 07004KT 06/M02 A3037 RMK A01 T00601021  RH  056%=      5-min Rain = 0
KEA1 091821Z 10005KT 06/M02 A3036 RMK A01 T00601021  RH  056%=      5-min Rain = 0
KEA1 091822Z 08005KT 06/M02 A3036 RMK A01 T00591021  RH  056%=      5-min Rain = 0
KEA1 091823Z 08004KT 06/M02 A3036 RMK A01 T00601018  RH  057%=      5-min Rain = 0
KEA1 091824Z 09003KT 06/M02 A3036 RMK A01 T00581023  RH  056%=      5-min Rain = 0
KEA1 091825Z 10003KT 06/M02 A3036 RMK A01 T00571022  RH  057%=      5-min Rain = 0
KEA1 091826Z 11006KT 06/M02 A3036 RMK A01 T00581020  RH  057%=      5-min Rain = 0
KEA1 091827Z 11005KT 06/M02 A3036 RMK A01 T00601021  RH  056%=      5-min Rain = 0
KEA1 091828Z 12004KT 06/M02 A3036 RMK A01 T00591021  RH  056%=      5-min Rain = 0
KEA1 091829Z 11004KT 06/M02 A3036 RMK A01 T00591020  RH  057%=      5-min Rain = 0
KEA1 091830Z 09003KT 06/M02 A3036 RMK A01 T00581022  RH  056%=      5-min Rain = 0
KEA1 091831Z 09003KT 06/M02 A3036 RMK A01 T00561024  RH  057%=      5-min Rain = 0
KEA1 091832Z 11003KT 06/M02 A3036 RMK A01 T00561021  RH  058%=      5-min Rain = 0
KEA1 091833Z 11005KT 06/M02 A3036 RMK A01 T00581020  RH  057%=      5-min Rain = 0
KEA1 091834Z 11005KT 06/M02 A3036 RMK A01 T00601023  RH  055%=      5-min Rain = 0
KEA1 091835Z 10003KT 06/M02 A3035 RMK A01 T00621016  RH  057%=      5-min Rain = 0
KEA1 091836Z 07004KT 06/M02 A3035 RMK A01 T00641017  RH  056%=      5-min Rain = 0
KEA1 091837Z 07005KT 06/M02 A3035 RMK A01 T00611021  RH  056%=      5-min Rain = 0
KEA1 091838Z 08005KT 06/M02 A3035 RMK A01 T00581021  RH  057%=      5-min Rain = 0
KEA1 091839Z 07006KT 06/M02 A3035 RMK A01 T00581019  RH  058%=      5-min Rain = 0
KEA1 091840Z 06004KT 06/M02 A3035 RMK A01 T00561021  RH  058%=      5-min Rain = 0
KEA1 091841Z 11004KT 06/M02 A3035 RMK A01 T00561018  RH  059%=      5-min Rain = 0
KEA1 091842Z 11005KT 06/M02 A3035 RMK A01 T00591022  RH  056%=      5-min Rain = 0
KEA1 091843Z 09004KT 06/M02 A3035 RMK A01 T00591021  RH  056%=      5-min Rain = 0
KEA1 091844Z 08004KT 06/M02 A3035 RMK A01 T00581019  RH  057%=      5-min Rain = 0
KEA1 091845Z 08004KT 06/M02 A3035 RMK A01 T00581016  RH  059%=      5-min Rain = 0
KEA1 091846Z 09002KT 06/M01 A3035 RMK A01 T00611014  RH  058%=      5-min Rain = 0
KEA1 091847Z 13004KT 06/M01 A3035 RMK A01 T00641014  RH  058%=      5-min Rain = 0
KEA1 091848Z 12004KT 07/M02 A3035 RMK A01 T00651016  RH  056%=      5-min Rain = 0
KEA1 091849Z 10004KT 07/M02 A3035 RMK A01 T00651017  RH  056%=      5-min Rain = 0
KEA1 091850Z 10005KT 06/M02 A3035 RMK A01 T00641019  RH  056%=      5-min Rain = 0
KEA1 091851Z 09004KT 06/M02 A3035 RMK A01 T00611019  RH  056%=      5-min Rain = 0
KEA1 091852Z 09004KT 06/M02 A3035 RMK A01 T00611020  RH  056%=      5-min Rain = 0
KEA1 091853Z 10004KT 06/M02 A3035 RMK A01 T00611017  RH  058%=      5-min Rain = 0
KEA1 091854Z 09003KT 06/M02 A3035 RMK A01 T00621020  RH  056%=      5-min Rain = 0
KEA1 091855Z 10001KT 06/M02 A3035 RMK A01 T00591023  RH  055%=      5-min Rain = 0
KEA1 091856Z 16001KT 06/M02 A3035 RMK A01 T00591022  RH  056%=      5-min Rain = 0
KEA1 091857Z 14001KT 06/M02 A3035 RMK A01 T00611023  RH  055%=      5-min Rain = 0
KEA1 091858Z 09003KT 06/M02 A3035 RMK A01 T00621020  RH  055%=      5-min Rain = 0
KEA1 091859Z 10003KT 06/M02 A3035 RMK A01 T00621020  RH  056%=      5-min Rain = 0
KEA1 091900Z 10003KT 06/M02 A3035 RMK A01 T00611021  RH  056%=      5-min Rain = 0
KEA1 091901Z 08004KT 06/M02 A3035 RMK A01 T00611018  RH  057%=      5-min Rain = 0
KEA1 091902Z 09004KT 06/M02 A3035 RMK A01 T00621020  RH  056%=      5-min Rain = 0
KEA1 091903Z 08006KT 06/M02 A3034 RMK A01 T00611019  RH  057%=      5-min Rain = 0
KEA1 091904Z 05002KT 06/M02 A3034 RMK A01 T00611020  RH  056%=      5-min Rain = 0
KEA1 091905Z 04002KT 06/M02 A3034 RMK A01 T00611018  RH  057%=      5-min Rain = 0
KEA1 091906Z 08002KT 06/M02 A3034 RMK A01 T00631018  RH  056%=      5-min Rain = 0
KEA1 091907Z 16003KT 07/M02 A3034 RMK A01 T00651017  RH  056%=      5-min Rain = 0
KEA1 091908Z 08006KT 07/M02 A3034 RMK A01 T00661016  RH  056%=      5-min Rain = 0
KEA1 091909Z 07007KT 07/M02 A3034 RMK A01 T00661016  RH  056%=      5-min Rain = 0
KEA1 091910Z 06005KT 06/M02 A3034 RMK A01 T00641018  RH  056%=      5-min Rain = 0
KEA1 091911Z 05003KT 06/M02 A3034 RMK A01 T00631019  RH  056%=      5-min Rain = 0
KEA1 091912Z 08001KT 06/M02 A3034 RMK A01 T00631022  RH  055%=      5-min Rain = 0
KEA1 091913Z 14000KT 06/M02 A3034 RMK A01 T00631022  RH  055%=      5-min Rain = 0
KEA1 091914Z 29000KT 06/M02 A3034 RMK A01 T00621023  RH  054%=      5-min Rain = 0
KEA1 091915Z 15001KT 06/M02 A3034 RMK A01 T00631023  RH  054%=      5-min Rain = 0
KEA1 091916Z 13003KT 07/M02 A3034 RMK A01 T00671017  RH  055%=      5-min Rain = 0
KEA1 091917Z 09003KT 07/M02 A3034 RMK A01 T00691019  RH  054%=      5-min Rain = 0
KEA1 091918Z 12003KT 07/M02 A3034 RMK A01 T00681018  RH  054%=      5-min Rain = 0
KEA1 091919Z 14004KT 07/M02 A3034 RMK A01 T00681016  RH  055%=      5-min Rain = 0
KEA1 091920Z 15004KT 07/M02 A3034 RMK A01 T00691017  RH  054%=      5-min Rain = 0
KEA1 091921Z 16002KT 07/M02 A3034 RMK A01 T00691019  RH  054%=      5-min Rain = 0
KEA1 091922Z 17003KT 07/M02 A3034 RMK A01 T00691020  RH  053%=      5-min Rain = 0
KEA1 091923Z 18002KT 07/M02 A3034 RMK A01 T00681022  RH  053%=      5-min Rain = 0
KEA1 091924Z 14002KT 07/M02 A3034 RMK A01 T00661021  RH  054%=      5-min Rain = 0
KEA1 091925Z 14004KT 07/M02 A3034 RMK A01 T00671019  RH  055%=      5-min Rain = 0
KEA1 091926Z 14004KT 07/M02 A3034 RMK A01 T00681018  RH  054%=      5-min Rain = 0
KEA1 091927Z 14003KT 07/M02 A3034 RMK A01 T00691020  RH  053%=      5-min Rain = 0
KEA1 091928Z 12003KT 07/M02 A3034 RMK A01 T00681020  RH  053%=      5-min Rain = 0
KEA1 091929Z 11004KT 07/M02 A3034 RMK A01 T00681022  RH  053%=      5-min Rain = 0
KEA1 091930Z 09004KT 07/M02 A3034 RMK A01 T00671020  RH  054%=      5-min Rain = 0
KEA1 091931Z 06005KT 07/M02 A3034 RMK A01 T00671018  RH  055%=      5-min Rain = 0
KEA1 091932Z 07004KT 07/M02 A3034 RMK A01 T00661021  RH  054%=      5-min Rain = 0
KEA1 091933Z 10002KT 07/M02 A3034 RMK A01 T00661019  RH  055%=      5-min Rain = 0
KEA1 091934Z 11002KT 07/M02 A3034 RMK A01 T00661019  RH  054%=      5-min Rain = 0
KEA1 091935Z 06001KT 07/M02 A3034 RMK A01 T00671022  RH  053%=      5-min Rain = 0
KEA1 091936Z 12002KT 07/M02 A3034 RMK A01 T00661022  RH  053%=      5-min Rain = 0
KEA1 091937Z 15003KT 07/M02 A3034 RMK A01 T00661022  RH  053%=      5-min Rain = 0
KEA1 091938Z 15003KT 07/M02 A3034 RMK A01 T00661020  RH  054%=      5-min Rain = 0
KEA1 091939Z 17001KT 07/M02 A3034 RMK A01 T00671022  RH  053%=      5-min Rain = 0
KEA1 091940Z 14003KT 07/M02 A3034 RMK A01 T00681020  RH  053%=      5-min Rain = 0
KEA1 091941Z 14005KT 07/M02 A3034 RMK A01 T00701018  RH  053%=      5-min Rain = 0
KEA1 091942Z 14005KT 07/M02 A3034 RMK A01 T00711019  RH  053%=      5-min Rain = 0
KEA1 091943Z 13004KT 07/M02 A3034 RMK A01 T00701021  RH  052%=      5-min Rain = 0
KEA1 091944Z 11001KT 07/M02 A3034 RMK A01 T00681022  RH  053%=      5-min Rain = 0
KEA1 091945Z 17003KT 07/M02 A3034 RMK A01 T00701017  RH  054%=      5-min Rain = 0
KEA1 091946Z 16004KT 07/M02 A3033 RMK A01 T00721017  RH  053%=      5-min Rain = 0
KEA1 091947Z 10004KT 07/M02 A3033 RMK A01 T00731018  RH  052%=      5-min Rain = 0
KEA1 091948Z 11004KT 07/M02 A3033 RMK A01 T00731019  RH  052%=      5-min Rain = 0
KEA1 091949Z 10003KT 07/M02 A3033 RMK A01 T00721020  RH  052%=      5-min Rain = 0
KEA1 091950Z 08001KT 07/M02 A3033 RMK A01 T00691023  RH  052%=      5-min Rain = 0
KEA1 091951Z 13004KT 07/M02 A3033 RMK A01 T00671024  RH  052%=      5-min Rain = 0
KEA1 091952Z 13006KT 07/M02 A3033 RMK A01 T00661022  RH  053%=      5-min Rain = 0
KEA1 091953Z 15005KT 07/M02 A3033 RMK A01 T00661023  RH  053%=      5-min Rain = 0
KEA1 091954Z 15007KT 07/M02 A3033 RMK A01 T00671020  RH  054%=      5-min Rain = 0
KEA1 091955Z 15004KT 07/M02 A3033 RMK A01 T00681020  RH  053%=      5-min Rain = 0
KEA1 091956Z 16003KT 07/M02 A3033 RMK A01 T00681021  RH  053%=      5-min Rain = 0
KEA1 091957Z 18005KT 07/M02 A3033 RMK A01 T00701017  RH  054%=      5-min Rain = 0
KEA1 091958Z 18004KT 07/M02 A3033 RMK A01 T00711019  RH  053%=      5-min Rain = 0
KEA1 091959Z 20004KT 07/M02 A3033 RMK A01 T00711018  RH  053%=      5-min Rain = 0
KEA1 092000Z 17003KT 07/M02 A3033 RMK A01 T00721019  RH  053%=      5-min Rain = 0
KEA1 092001Z 14005KT 07/M02 A3033 RMK A01 T00721020  RH  052%=      5-min Rain = 0
KEA1 092002Z 12002KT 07/M02 A3033 RMK A01 T00721019  RH  052%=      5-min Rain = 0
KEA1 092003Z 17002KT 07/M02 A3033 RMK A01 T00731019  RH  052%=      5-min Rain = 0
KEA1 092004Z 18002KT 07/M02 A3033 RMK A01 T00731018  RH  052%=      5-min Rain = 0
KEA1 092005Z 13002KT 08/M02 A3033 RMK A01 T00751017  RH  052%=      5-min Rain = 0
KEA1 092006Z 14003KT 08/M02 A3033 RMK A01 T00771017  RH  051%=      5-min Rain = 0
KEA1 092007Z 12004KT 08/M02 A3033 RMK A01 T00771018  RH  051%=      5-min Rain = 0
KEA1 092008Z 12004KT 08/M02 A3033 RMK A01 T00751022  RH  050%=      5-min Rain = 0
KEA1 092009Z 09002KT 07/M02 A3033 RMK A01 T00711023  RH  051%=      5-min Rain = 0
KEA1 092010Z 13002KT 07/M02 A3033 RMK A01 T00701022  RH  052%=      5-min Rain = 0
KEA1 092011Z 18003KT 07/M02 A3033 RMK A01 T00711021  RH  052%=      5-min Rain = 0
KEA1 092012Z 19002KT 07/M02 A3033 RMK A01 T00711022  RH  052%=      5-min Rain = 0
KEA1 092013Z 21002KT 07/M02 A3033 RMK A01 T00711021  RH  052%=      5-min Rain = 0
KEA1 092014Z 18001KT 07/M02 A3033 RMK A01 T00711023  RH  051%=      5-min Rain = 0
KEA1 092015Z 11001KT 07/M02 A3033 RMK A01 T00721021  RH  051%=      5-min Rain = 0
KEA1 092016Z 16000KT 08/M02 A3033 RMK A01 T00751018  RH  052%=      5-min Rain = 0
KEA1 092017Z 25000KT 08/M02 A3033 RMK A01 T00761019  RH  051%=      5-min Rain = 0
KEA1 092018Z 29000KT 08/M02 A3033 RMK A01 T00791017  RH  051%=      5-min Rain = 0
KEA1 092019Z 05000KT 08/M01 A3032 RMK A01 T00821014  RH  051%=      5-min Rain = 0
KEA1 092020Z 08001KT 08/M02 A3032 RMK A01 T00831017  RH  049%=      5-min Rain = 0
KEA1 092021Z 10002KT 08/M02 A3032 RMK A01 T00831016  RH  050%=      5-min Rain = 0
KEA1 092022Z 08002KT 08/M02 A3032 RMK A01 T00811019  RH  049%=      5-min Rain = 0
KEA1 092023Z 09003KT 08/M02 A3032 RMK A01 T00771022  RH  050%=      5-min Rain = 0
KEA1 092024Z 06003KT 07/M02 A3032 RMK A01 T00741021  RH  051%=      5-min Rain = 0
KEA1 092025Z 09002KT 07/M02 A3032 RMK A01 T00721021  RH  051%=      5-min Rain = 0
KEA1 092026Z 09001KT 07/M02 A3032 RMK A01 T00711022  RH  051%=      5-min Rain = 0
KEA1 092027Z 10002KT 07/M02 A3032 RMK A01 T00701022  RH  052%=      5-min Rain = 0
KEA1 092028Z 10002KT 07/M02 A3032 RMK A01 T00701021  RH  052%=      5-min Rain = 0
KEA1 092029Z 09001KT 07/M02 A3032 RMK A01 T00691023  RH  052%=      5-min Rain = 0
KEA1 092030Z 10001KT 07/M02 A3032 RMK A01 T00681024  RH  052%=      5-min Rain = 0
KEA1 092031Z 09001KT 07/M02 A3033 RMK A01 T00681020  RH  053%=      5-min Rain = 0
KEA1 092032Z 11002KT 07/M02 A3033 RMK A01 T00691019  RH  054%=      5-min Rain = 0
KEA1 092033Z 11002KT 07/M02 A3032 RMK A01 T00691020  RH  053%=      5-min Rain = 0
KEA1 092034Z 15003KT 07/M02 A3032 RMK A01 T00691019  RH  053%=      5-min Rain = 0
KEA1 092035Z 13002KT 07/M02 A3032 RMK A01 T00681019  RH  054%=      5-min Rain = 0
KEA1 092036Z 13003KT 07/M02 A3033 RMK A01 T00681017  RH  054%=      5-min Rain = 0
KEA1 092037Z 10002KT 07/M02 A3033 RMK A01 T00691015  RH  055%=      5-min Rain = 0
KEA1 092038Z 11002KT 07/M02 A3032 RMK A01 T00701018  RH  054%=      5-min Rain = 0
KEA1 092039Z 11002KT 07/M02 A3032 RMK A01 T00691020  RH  053%=      5-min Rain = 0
KEA1 092040Z 10001KT 07/M02 A3032 RMK A01 T00681020  RH  053%=      5-min Rain = 0
KEA1 092041Z 14001KT 07/M02 A3032 RMK A01 T00681020  RH  053%=      5-min Rain = 0
KEA1 092042Z 13002KT 07/M02 A3032 RMK A01 T00681019  RH  054%=      5-min Rain = 0
KEA1 092043Z 13002KT 07/M02 A3032 RMK A01 T00691016  RH  055%=      5-min Rain = 0
KEA1 092044Z 16001KT 07/M02 A3032 RMK A01 T00691019  RH  053%=      5-min Rain = 0
KEA1 092045Z 17001KT 07/M02 A3033 RMK A01 T00701016  RH  054%=      5-min Rain = 0
KEA1 092046Z 14002KT 07/M02 A3033 RMK A01 T00711015  RH  054%=      5-min Rain = 0
KEA1 092047Z 14003KT 07/M02 A3033 RMK A01 T00731015  RH  054%=      5-min Rain = 0
KEA1 092048Z 16003KT 07/M02 A3033 RMK A01 T00731016  RH  053%=      5-min Rain = 0
KEA1 092049Z 15002KT 07/M02 A3033 RMK A01 T00721020  RH  052%=      5-min Rain = 0
KEA1 092050Z 15002KT 07/M02 A3033 RMK A01 T00711018  RH  053%=      5-min Rain = 0
KEA1 092051Z 14003KT 07/M01 A3033 RMK A01 T00711014  RH  054%=      5-min Rain = 0
KEA1 092052Z 11003KT 07/M02 A3033 RMK A01 T00721015  RH  054%=      5-min Rain = 0
KEA1 092053Z 10002KT 07/M02 A3033 RMK A01 T00711019  RH  053%=      5-min Rain = 0
KEA1 092054Z 06002KT 07/M02 A3033 RMK A01 T00701019  RH  053%=      5-min Rain = 0
KEA1 092055Z 03002KT 07/M02 A3033 RMK A01 T00691019  RH  054%=      5-min Rain = 0
KEA1 092056Z 02001KT 07/M02 A3033 RMK A01 T00681019  RH  054%=      5-min Rain = 0
KEA1 092057Z 07001KT 07/M02 A3033 RMK A01 T00681016  RH  055%=      5-min Rain = 0
KEA1 092058Z 07000KT 07/M02 A3032 RMK A01 T00691015  RH  055%=      5-min Rain = 0
KEA1 092059Z 11001KT 07/M01 A3032 RMK A01 T00721011  RH  056%=      5-min Rain = 0
KEA1 092100Z 21001KT 08/M01 A3032 RMK A01 T00751008  RH  056%=      5-min Rain = 0
KEA1 092101Z 20002KT 08/M01 A3032 RMK A01 T00761012  RH  053%=      5-min Rain = 0
KEA1 092102Z 20002KT 08/M02 A3032 RMK A01 T00761016  RH  052%=      5-min Rain = 0
KEA1 092103Z 19002KT 08/M02 A3032 RMK A01 T00751016  RH  053%=      5-min Rain = 0
KEA1 092104Z 17002KT 07/M01 A3032 RMK A01 T00731014  RH  054%=      5-min Rain = 0
KEA1 092105Z 19001KT 07/M01 A3032 RMK A01 T00731014  RH  054%=      5-min Rain = 0
KEA1 092106Z 20003KT 07/M02 A3032 RMK A01 T00721015  RH  054%=      5-min Rain = 0
KEA1 092107Z 21006KT 07/M01 A3032 RMK A01 T00721013  RH  055%=      5-min Rain = 0
KEA1 092108Z 19007KT 07/M01 A3032 RMK A01 T00711011  RH  056%=      5-min Rain = 0
KEA1 092109Z 20007KT 07/M01 A3032 RMK A01 T00711011  RH  056%=      5-min Rain = 0
KEA1 092110Z 20007KT 07/M01 A3032 RMK A01 T00721010  RH  056%=      5-min Rain = 0
KEA1 092111Z 20007KT 07/M01 A3032 RMK A01 T00731011  RH  055%=      5-min Rain = 0
KEA1 092112Z 19006KT 07/M01 A3032 RMK A01 T00721012  RH  055%=      5-min Rain = 0
KEA1 092113Z 18005KT 07/M01 A3032 RMK A01 T00721010  RH  056%=      5-min Rain = 0
KEA1 092114Z 18005KT 07/M01 A3032 RMK A01 T00731012  RH  055%=      5-min Rain = 0
KEA1 092115Z 19005KT 07/M01 A3032 RMK A01 T00721013  RH  055%=      5-min Rain = 0
KEA1 092116Z 19005KT 07/M02 A3032 RMK A01 T00701015  RH  055%=      5-min Rain = 0
KEA1 092117Z 18004KT 07/M01 A3032 RMK A01 T00711011  RH  056%=      5-min Rain = 0
KEA1 092118Z 17006KT 07/M01 A3032 RMK A01 T00731011  RH  055%=      5-min Rain = 0
KEA1 092119Z 15005KT 08/M01 A3032 RMK A01 T00761008  RH  056%=      5-min Rain = 0
KEA1 092120Z 18005KT 08/M01 A3032 RMK A01 T00791010  RH  053%=      5-min Rain = 0
KEA1 092121Z 18005KT 08/M01 A3032 RMK A01 T00791013  RH  052%=      5-min Rain = 0
KEA1 092122Z 17005KT 08/M01 A3032 RMK A01 T00781012  RH  053%=      5-min Rain = 0
KEA1 092123Z 15004KT 08/M01 A3032 RMK A01 T00791011  RH  053%=      5-min Rain = 0
KEA1 092124Z 15003KT 08/M01 A3032 RMK A01 T00781013  RH  053%=      5-min Rain = 0
KEA1 092125Z 14002KT 08/M02 A3032 RMK A01 T00771015  RH  052%=      5-min Rain = 0
KEA1 092126Z 13002KT 08/M01 A3032 RMK A01 T00751014  RH  053%=      5-min Rain = 0
KEA1 092127Z 18001KT 08/M01 A3032 RMK A01 T00761014  RH  053%=      5-min Rain = 0
KEA1 092128Z 15003KT 08/M01 A3032 RMK A01 T00771012  RH  053%=      5-min Rain = 0
KEA1 092129Z 14004KT 08/M01 A3032 RMK A01 T00791011  RH  053%=      5-min Rain = 0
KEA1 092130Z 16005KT 08/M01 A3032 RMK A01 T00811009  RH  053%=      5-min Rain = 0
KEA1 092131Z 15006KT 08/M01 A3032 RMK A01 T00821008  RH  053%=      5-min Rain = 0
KEA1 092132Z 19004KT 08/M01 A3032 RMK A01 T00831007  RH  053%=      5-min Rain = 0
KEA1 092133Z 19005KT 08/M01 A3032 RMK A01 T00841008  RH  052%=      5-min Rain = 0
KEA1 092134Z 19006KT 08/M01 A3032 RMK A01 T00831009  RH  052%=      5-min Rain = 0
KEA1 092135Z 19005KT 08/M01 A3032 RMK A01 T00821011  RH  052%=      5-min Rain = 0
KEA1 092136Z 18006KT 08/M01 A3032 RMK A01 T00801011  RH  053%=      5-min Rain = 0
KEA1 092137Z 19005KT 08/M01 A3032 RMK A01 T00781014  RH  052%=      5-min Rain = 0
KEA1 092138Z 17006KT 08/M01 A3032 RMK A01 T00771012  RH  054%=      5-min Rain = 0
KEA1 092139Z 17007KT 08/M01 A3032 RMK A01 T00781010  RH  054%=      5-min Rain = 0
KEA1 092140Z 17006KT 08/M01 A3032 RMK A01 T00771012  RH  053%=      5-min Rain = 0
KEA1 092141Z 16007KT 08/M01 A3032 RMK A01 T00761010  RH  054%=      5-min Rain = 0
KEA1 092142Z 16008KT 08/M01 A3032 RMK A01 T00761010  RH  054%=      5-min Rain = 0
KEA1 092143Z 17007KT 08/M01 A3032 RMK A01 T00761010  RH  054%=      5-min Rain = 0
KEA1 092144Z 18007KT 08/M01 A3032 RMK A01 T00761011  RH  054%=      5-min Rain = 0
KEA1 092145Z 18008KT 08/M01 A3032 RMK A01 T00751011  RH  054%=      5-min Rain = 0
KEA1 092146Z 18008KT 07/M01 A3032 RMK A01 T00741013  RH  054%=      5-min Rain = 0
KEA1 092147Z 18007KT 07/M01 A3032 RMK A01 T00731012  RH  055%=      5-min Rain = 0
KEA1 092148Z 18006KT 07/M01 A3032 RMK A01 T00731013  RH  054%=      5-min Rain = 0
KEA1 092149Z 16008KT 07/M01 A3032 RMK A01 T00731011  RH  055%=      5-min Rain = 0
KEA1 092150Z 16007KT 07/M01 A3032 RMK A01 T00731011  RH  055%=      5-min Rain = 0
KEA1 092151Z 17007KT 07/M01 A3032 RMK A01 T00741010  RH  055%=      5-min Rain = 0
KEA1 092152Z 17006KT 07/M01 A3032 RMK A01 T00741013  RH  054%=      5-min Rain = 0
KEA1 092153Z 16006KT 07/M01 A3032 RMK A01 T00731011  RH  055%=      5-min Rain = 0
KEA1 092154Z 16005KT 07/M01 A3032 RMK A01 T00741011  RH  055%=      5-min Rain = 0
KEA1 092155Z 17006KT 07/M01 A3032 RMK A01 T00741011  RH  055%=      5-min Rain = 0
KEA1 092156Z 16006KT 08/M01 A3032 RMK A01 T00751012  RH  054%=      5-min Rain = 0
KEA1 092157Z 17007KT 07/M01 A3032 RMK A01 T00731013  RH  054%=      5-min Rain = 0
KEA1 092158Z 18006KT 07/M01 A3032 RMK A01 T00731011  RH  055%=      5-min Rain = 0
KEA1 092159Z 17007KT 07/M01 A3032 RMK A01 T00731011  RH  055%=      5-min Rain = 0
KEA1 092200Z 18008KT 07/M01 A3032 RMK A01 T00731012  RH  055%=      5-min Rain = 0
KEA1 092201Z 17007KT 07/M01 A3032 RMK A01 T00731013  RH  054%=      5-min Rain = 0
KEA1 092202Z 16006KT 07/M01 A3032 RMK A01 T00721011  RH  056%=      5-min Rain = 0
KEA1 092203Z 16006KT 07/M01 A3032 RMK A01 T00731012  RH  055%=      5-min Rain = 0
KEA1 092204Z 15007KT 07/M01 A3032 RMK A01 T00731012  RH  055%=      5-min Rain = 0
KEA1 092205Z 15007KT 07/M01 A3032 RMK A01 T00721012  RH  055%=      5-min Rain = 0
KEA1 092206Z 17007KT 07/M01 A3032 RMK A01 T00721011  RH  055%=      5-min Rain = 0
KEA1 092207Z 17007KT 07/M01 A3032 RMK A01 T00721012  RH  055%=      5-min Rain = 0
KEA1 092208Z 16007KT 07/M01 A3032 RMK A01 T00721012  RH  055%=      5-min Rain = 0
KEA1 092209Z 16007KT 07/M01 A3032 RMK A01 T00731013  RH  055%=      5-min Rain = 0
KEA1 092210Z 17006KT 07/M01 A3032 RMK A01 T00721012  RH  055%=      5-min Rain = 0
KEA1 092211Z 17006KT 07/M01 A3032 RMK A01 T00721012  RH  055%=      5-min Rain = 0
KEA1 092212Z 17006KT 07/M01 A3032 RMK A01 T00731009  RH  056%=      5-min Rain = 0
KEA1 092213Z 17005KT 08/M01 A3032 RMK A01 T00761008  RH  056%=      5-min Rain = 0
KEA1 092214Z 17005KT 08/M01 A3032 RMK A01 T00771008  RH  055%=      5-min Rain = 0
KEA1 092215Z 17007KT 08/M01 A3032 RMK A01 T00771010  RH  054%=      5-min Rain = 0
KEA1 092216Z 17006KT 08/M01 A3032 RMK A01 T00761012  RH  054%=      5-min Rain = 0
KEA1 092217Z 16006KT 07/M01 A3032 RMK A01 T00741013  RH  054%=      5-min Rain = 0
KEA1 092218Z 14006KT 07/M01 A3032 RMK A01 T00731011  RH  055%=      5-min Rain = 0
KEA1 092219Z 14007KT 07/M01 A3032 RMK A01 T00731012  RH  055%=      5-min Rain = 0
KEA1 092220Z 14006KT 07/M01 A3032 RMK A01 T00731012  RH  055%=      5-min Rain = 0
KEA1 092221Z 15006KT 07/M01 A3032 RMK A01 T00721013  RH  055%=      5-min Rain = 0
KEA1 092222Z 13008KT 07/M01 A3032 RMK A01 T00721013  RH  055%=      5-min Rain = 0
KEA1 092223Z 13007KT 07/M01 A3032 RMK A01 T00711014  RH  054%=      5-min Rain = 0
KEA1 092224Z 12007KT 07/M01 A3032 RMK A01 T00701014  RH  055%=      5-min Rain = 0
KEA1 092225Z 13008KT 07/M01 A3032 RMK A01 T00701013  RH  055%=      5-min Rain = 0
KEA1 092226Z 13008KT 07/M01 A3032 RMK A01 T00701014  RH  055%=      5-min Rain = 0
KEA1 092227Z 15007KT 07/M01 A3032 RMK A01 T00701012  RH  056%=      5-min Rain = 0
KEA1 092228Z 15006KT 07/M01 A3032 RMK A01 T00711013  RH  055%=      5-min Rain = 0
KEA1 092229Z 14005KT 07/M01 A3032 RMK A01 T00711012  RH  056%=      5-min Rain = 0
KEA1 092230Z 13005KT 07/M01 A3032 RMK A01 T00731009  RH  056%=      5-min Rain = 0
KEA1 092231Z 14005KT 07/M01 A3032 RMK A01 T00731012  RH  055%=      5-min Rain = 0
KEA1 092232Z 15005KT 07/M01 A3032 RMK A01 T00721012  RH  055%=      5-min Rain = 0
KEA1 092233Z 15003KT 07/M01 A3032 RMK A01 T00721013  RH  055%=      5-min Rain = 0
KEA1 092234Z 15004KT 07/M01 A3032 RMK A01 T00731010  RH  056%=      5-min Rain = 0
KEA1 092235Z 15005KT 07/M01 A3032 RMK A01 T00741009  RH  055%=      5-min Rain = 0
KEA1 092236Z 14004KT 08/M01 A3032 RMK A01 T00751010  RH  055%=      5-min Rain = 0
KEA1 092237Z 14004KT 07/M01 A3032 RMK A01 T00741012  RH  054%=      5-min Rain = 0
KEA1 092238Z 13004KT 07/M01 A3032 RMK A01 T00731010  RH  055%=      5-min Rain = 0
KEA1 092239Z 12006KT 07/M01 A3032 RMK A01 T00731009  RH  056%=      5-min Rain = 0
KEA1 092240Z 12005KT 07/M01 A3032 RMK A01 T00731010  RH  056%=      5-min Rain = 0
KEA1 092241Z 13006KT 07/M01 A3032 RMK A01 T00721009  RH  056%=      5-min Rain = 0
KEA1 092242Z 13006KT 07/M01 A3032 RMK A01 T00701010  RH  057%=      5-min Rain = 0
KEA1 092243Z 12007KT 07/M01 A3032 RMK A01 T00701011  RH  057%=      5-min Rain = 0
KEA1 092244Z 12006KT 07/M01 A3032 RMK A01 T00691010  RH  057%=      5-min Rain = 0
KEA1 092245Z 12007KT 07/M01 A3032 RMK A01 T00681012  RH  057%=      5-min Rain = 0
KEA1 092246Z 13006KT 07/M01 A3032 RMK A01 T00661013  RH  057%=      5-min Rain = 0
KEA1 092247Z 14006KT 07/M01 A3032 RMK A01 T00661012  RH  058%=      5-min Rain = 0
KEA1 092248Z 14007KT 07/M01 A3032 RMK A01 T00661013  RH  057%=      5-min Rain = 0
KEA1 092249Z 14007KT 07/M01 A3032 RMK A01 T00661014  RH  057%=      5-min Rain = 0
KEA1 092250Z 14007KT 07/M02 A3032 RMK A01 T00651015  RH  057%=      5-min Rain = 0
KEA1 092251Z 14006KT 06/M02 A3032 RMK A01 T00641015  RH  057%=      5-min Rain = 0
KEA1 092252Z 13006KT 06/M02 A3032 RMK A01 T00641015  RH  057%=      5-min Rain = 0
KEA1 092253Z 13005KT 06/M02 A3032 RMK A01 T00631015  RH  057%=      5-min Rain = 0
KEA1 092254Z 12005KT 06/M01 A3032 RMK A01 T00631014  RH  058%=      5-min Rain = 0
KEA1 092255Z 12005KT 06/M01 A3032 RMK A01 T00621014  RH  058%=      5-min Rain = 0
KEA1 092256Z 13006KT 06/M01 A3032 RMK A01 T00621014  RH  058%=      5-min Rain = 0
KEA1 092257Z 13006KT 06/M02 A3032 RMK A01 T00611015  RH  058%=      5-min Rain = 0
KEA1 092258Z 12004KT 06/M01 A3032 RMK A01 T00611014  RH  059%=      5-min Rain = 0
KEA1 092259Z 12004KT 06/M01 A3033 RMK A01 T00601013  RH  059%=      5-min Rain = 0
KEA1 092300Z 12006KT 06/M01 A3033 RMK A01 T00611013  RH  059%=      5-min Rain = 0
KEA1 092301Z 13006KT 06/M02 A3033 RMK A01 T00591016  RH  059%=      5-min Rain = 0
KEA1 092302Z 13006KT 06/M02 A3033 RMK A01 T00581016  RH  059%=      5-min Rain = 0
KEA1 092303Z 13005KT 06/M02 A3033 RMK A01 T00581016  RH  059%=      5-min Rain = 0
KEA1 092304Z 13005KT 06/M02 A3033 RMK A01 T00581016  RH  059%=      5-min Rain = 0
KEA1 092305Z 13005KT 06/M02 A3033 RMK A01 T00571015  RH  060%=      5-min Rain = 0
KEA1 092306Z 13006KT 06/M02 A3033 RMK A01 T00561015  RH  060%=      5-min Rain = 0
KEA1 092307Z 13006KT 06/M02 A3033 RMK A01 T00551017  RH  060%=      5-min Rain = 0
KEA1 092308Z 13006KT 05/M02 A3033 RMK A01 T00541018  RH  060%=      5-min Rain = 0
KEA1 092309Z 13007KT 05/M02 A3033 RMK A01 T00531018  RH  060%=      5-min Rain = 0
KEA1 092310Z 14006KT 05/M02 A3033 RMK A01 T00521019  RH  060%=      5-min Rain = 0
KEA1 092311Z 15006KT 05/M02 A3033 RMK A01 T00511019  RH  061%=      5-min Rain = 0
KEA1 092312Z 15006KT 05/M02 A3033 RMK A01 T00501019  RH  061%=      5-min Rain = 0
KEA1 092313Z 15006KT 05/M02 A3033 RMK A01 T00491019  RH  062%=      5-min Rain = 0
KEA1 092314Z 15006KT 05/M02 A3033 RMK A01 T00481018  RH  062%=      5-min Rain = 0
KEA1 092315Z 15006KT 05/M02 A3033 RMK A01 T00471018  RH  063%=      5-min Rain = 0
KEA1 092316Z 15006KT 05/M02 A3033 RMK A01 T00461019  RH  063%=      5-min Rain = 0
KEA1 092317Z 14007KT 04/M02 A3033 RMK A01 T00441019  RH  064%=      5-min Rain = 0
KEA1 092318Z 15007KT 04/M02 A3033 RMK A01 T00431019  RH  064%=      5-min Rain = 0
KEA1 092319Z 15007KT 04/M02 A3033 RMK A01 T00421019  RH  064%=      5-min Rain = 0
KEA1 092320Z 15007KT 04/M02 A3033 RMK A01 T00411020  RH  064%=      5-min Rain = 0
KEA1 092321Z 15008KT 04/M02 A3033 RMK A01 T00401021  RH  065%=      5-min Rain = 0
KEA1 092322Z 15007KT 04/M02 A3032 RMK A01 T00391021  RH  065%=      5-min Rain = 0
KEA1 092323Z 15007KT 04/M02 A3032 RMK A01 T00381022  RH  065%=      5-min Rain = 0
KEA1 092324Z 15007KT 04/M02 A3032 RMK A01 T00371023  RH  065%=      5-min Rain = 0
KEA1 092325Z 15007KT 04/M02 A3032 RMK A01 T00361023  RH  065%=      5-min Rain = 0
KEA1 092326Z 15007KT 04/M02 A3032 RMK A01 T00351023  RH  066%=      5-min Rain = 0
KEA1 092327Z 15007KT 04/M02 A3032 RMK A01 T00351023  RH  066%=      5-min Rain = 0
KEA1 092328Z 15008KT 03/M02 A3032 RMK A01 T00341023  RH  066%=      5-min Rain = 0
KEA1 092329Z 15007KT 03/M02 A3032 RMK A01 T00321024  RH  067%=      5-min Rain = 0
KEA1 092330Z 16007KT 03/M02 A3032 RMK A01 T00321024  RH  067%=      5-min Rain = 0
KEA1 092331Z 16007KT 03/M02 A3032 RMK A01 T00301024  RH  067%=      5-min Rain = 0
KEA1 092332Z 15007KT 03/M02 A3032 RMK A01 T00301024  RH  068%=      5-min Rain = 0
KEA1 092333Z 15007KT 03/M02 A3032 RMK A01 T00291024  RH  068%=      5-min Rain = 0
KEA1 092334Z 15007KT 03/M03 A3033 RMK A01 T00281025  RH  068%=      5-min Rain = 0
KEA1 092335Z 15007KT 03/M03 A3033 RMK A01 T00271025  RH  069%=      5-min Rain = 0
KEA1 092336Z 15007KT 03/M03 A3033 RMK A01 T00261025  RH  069%=      5-min Rain = 0
KEA1 092337Z 15007KT 03/M03 A3033 RMK A01 T00251025  RH  070%=      5-min Rain = 0
KEA1 092338Z 15007KT 02/M03 A3033 RMK A01 T00241025  RH  070%=      5-min Rain = 0
KEA1 092339Z 16007KT 02/M03 A3033 RMK A01 T00241025  RH  070%=      5-min Rain = 0
KEA1 092340Z 15007KT 02/M03 A3032 RMK A01 T00231026  RH  070%=      5-min Rain = 0
KEA1 092341Z 15008KT 02/M03 A3032 RMK A01 T00211026  RH  071%=      5-min Rain = 0
KEA1 092342Z 15008KT 02/M03 A3032 RMK A01 T00211026  RH  071%=      5-min Rain = 0
KEA1 092343Z 15008KT 02/M03 A3032 RMK A01 T00201027  RH  071%=      5-min Rain = 0
KEA1 092344Z 15008KT 02/M03 A3032 RMK A01 T00191026  RH  072%=      5-min Rain = 0
KEA1 092345Z 15008KT 02/M03 A3032 RMK A01 T00191026  RH  072%=      5-min Rain = 0
KEA1 092346Z 15008KT 02/M03 A3032 RMK A01 T00191026  RH  072%=      5-min Rain = 0
KEA1 092347Z 15008KT 02/M03 A3032 RMK A01 T00181026  RH  073%=      5-min Rain = 0
KEA1 092348Z 16008KT 02/M03 A3032 RMK A01 T00181026  RH  073%=      5-min Rain = 0
KEA1 092349Z 16008KT 02/M03 A3032 RMK A01 T00171026  RH  073%=      5-min Rain = 0
KEA1 092350Z 16009KT 02/M03 A3032 RMK A01 T00161026  RH  073%=      5-min Rain = 0
KEA1 092351Z 16009KT 02/M03 A3032 RMK A01 T00161026  RH  074%=      5-min Rain = 0
KEA1 092352Z 16008KT 02/M03 A3032 RMK A01 T00161026  RH  074%=      5-min Rain = 0
KEA1 092353Z 16008KT 02/M03 A3032 RMK A01 T00161026  RH  074%=      5-min Rain = 0
KEA1 092354Z 16008KT 02/M03 A3032 RMK A01 T00151026  RH  074%=      5-min Rain = 0
KEA1 092355Z 16008KT 01/M03 A3033 RMK A01 T00141027  RH  074%=      5-min Rain = 0
KEA1 092356Z 16008KT 01/M03 A3033 RMK A01 T00121028  RH  075%=      5-min Rain = 0
KEA1 092357Z 16009KT 01/M03 A3033 RMK A01 T00121027  RH  075%=      5-min Rain = 0
KEA1 092358Z 16009KT 01/M03 A3033 RMK A01 T00111028  RH  075%=      5-min Rain = 0
KEA1 092359Z 17009KT 01/M03 A3033 RMK A01 T00111028  RH  075%=      5-min Rain = 0
KEA1 100000Z 17010KT 01/M03 A3033 RMK A01 T00111027  RH  076%=      5-min Rain = 0
KEA1 100001Z 16009KT 01/M03 A3033 RMK A01 T00101028  RH  076%=      5-min Rain = 0
KEA1 100002Z 16009KT 01/M03 A3033 RMK A01 T00101028  RH  076%=      5-min Rain = 0
KEA1 100003Z 17009KT 01/M03 A3033 RMK A01 T00111027  RH  076%=      5-min Rain = 0
KEA1 100004Z 17008KT 01/M03 A3033 RMK A01 T00101027  RH  076%=      5-min Rain = 0
KEA1 100005Z 16008KT 01/M03 A3033 RMK A01 T00091027  RH  077%=      5-min Rain = 0
KEA1 100006Z 16008KT 01/M03 A3033 RMK A01 T00091028  RH  077%=      5-min Rain = 0
KEA1 100007Z 16006KT 01/M03 A3033 RMK A01 T00081028  RH  077%=      5-min Rain = 0
KEA1 100008Z 16008KT 01/M03 A3033 RMK A01 T00071027  RH  077%=      5-min Rain = 0
KEA1 100009Z 16010KT 01/M03 A3033 RMK A01 T00061028  RH  078%=      5-min Rain = 0
KEA1 100010Z 16010KT 01/M03 A3033 RMK A01 T00071027  RH  078%=      5-min Rain = 0
KEA1 100011Z 16009KT 01/M03 A3033 RMK A01 T00071027  RH  078%=      5-min Rain = 0
KEA1 100012Z 16007KT 01/M03 A3033 RMK A01 T00091026  RH  077%=      5-min Rain = 0
KEA1 100013Z 17008KT 01/M03 A3033 RMK A01 T00101026  RH  077%=      5-min Rain = 0
KEA1 100014Z 16009KT 01/M03 A3033 RMK A01 T00101027  RH  076%=      5-min Rain = 0
KEA1 100015Z 16009KT 01/M03 A3033 RMK A01 T00091028  RH  077%=      5-min Rain = 0
KEA1 100016Z 16008KT 01/M03 A3033 RMK A01 T00081028  RH  077%=      5-min Rain = 0
KEA1 100017Z 16009KT 01/M03 A3033 RMK A01 T00101027  RH  077%=      5-min Rain = 0
KEA1 100018Z 16009KT 01/M03 A3033 RMK A01 T00111026  RH  076%=      5-min Rain = 0
KEA1 100019Z 16009KT 01/M03 A3033 RMK A01 T00111026  RH  076%=      5-min Rain = 0
KEA1 100020Z 16009KT 01/M03 A3034 RMK A01 T00111026  RH  076%=      5-min Rain = 0
KEA1 100021Z 16008KT 01/M03 A3034 RMK A01 T00101026  RH  076%=      5-min Rain = 0
KEA1 100022Z 16008KT 01/M03 A3034 RMK A01 T00101026  RH  077%=      5-min Rain = 0
KEA1 100023Z 15008KT 01/M03 A3034 RMK A01 T00101026  RH  077%=      5-min Rain = 0
KEA1 100024Z 16009KT 01/M03 A3034 RMK A01 T00091027  RH  077%=      5-min Rain = 0
KEA1 100025Z 16009KT 01/M03 A3034 RMK A01 T00081027  RH  078%=      5-min Rain = 0
KEA1 100026Z 16009KT 01/M03 A3034 RMK A01 T00071026  RH  078%=      5-min Rain = 0
KEA1 100027Z 16009KT 01/M03 A3034 RMK A01 T00071025  RH  079%=      5-min Rain = 0
KEA1 100028Z 16009KT 01/M03 A3034 RMK A01 T00071025  RH  079%=      5-min Rain = 0
KEA1 100029Z 16009KT 01/M03 A3034 RMK A01 T00081025  RH  079%=      5-min Rain = 0
KEA1 100030Z 16008KT 01/M03 A3034 RMK A01 T00071025  RH  079%=      5-min Rain = 0
KEA1 100031Z 16008KT 01/M03 A3034 RMK A01 T00071025  RH  079%=      5-min Rain = 0
KEA1 100032Z 16008KT 01/M03 A3034 RMK A01 T00071025  RH  079%=      5-min Rain = 0
KEA1 100033Z 16008KT 01/M03 A3034 RMK A01 T00061026  RH  079%=      5-min Rain = 0
KEA1 100034Z 16008KT 01/M03 A3034 RMK A01 T00051027  RH  080%=      5-min Rain = 0
KEA1 100035Z 15008KT 00/M03 A3034 RMK A01 T00031027  RH  080%=      5-min Rain = 0
KEA1 100036Z 15008KT 00/M03 A3034 RMK A01 T00021028  RH  080%=      5-min Rain = 0
KEA1 100037Z 15008KT 00/M03 A3034 RMK A01 T00011028  RH  081%=      5-min Rain = 0
KEA1 100038Z 15008KT 00/M03 A3034 RMK A01 T00011028  RH  081%=      5-min Rain = 0
KEA1 100039Z 15007KT 00/03 A3034 RMK A01 T00000-28  RH  081%=      5-min Rain = 0
KEA1 100040Z 15007KT 00/03 A3034 RMK A01 T00000-27  RH  082%=      5-min Rain = 0
KEA1 100041Z 15007KT 00/M03 A3034 RMK A01 T00011026  RH  082%=      5-min Rain = 0
KEA1 100042Z 15008KT 00/M03 A3034 RMK A01 T00011026  RH  082%=      5-min Rain = 0
KEA1 100043Z 15008KT 00/M03 A3034 RMK A01 T00011026  RH  082%=      5-min Rain = 0
KEA1 100044Z 15008KT 00/M03 A3034 RMK A01 T00011026  RH  082%=      5-min Rain = 0
KEA1 100045Z 15007KT 00/M03 A3034 RMK A01 T00011027  RH  082%=      5-min Rain = 0
KEA1 100046Z 15007KT 00/03 A3034 RMK A01 T00-00-27  RH  082%=      5-min Rain = 0
KEA1 100047Z 15007KT M00/M03 A3034 RMK A01 T10011027  RH  082%=      5-min Rain = 0
KEA1 100048Z 15007KT M00/M03 A3034 RMK A01 T10011027  RH  083%=      5-min Rain = 0
KEA1 100049Z 15007KT M00/M03 A3034 RMK A01 T10011027  RH  083%=      5-min Rain = 0
KEA1 100050Z 16008KT M00/M03 A3034 RMK A01 T10031029  RH  083%=      5-min Rain = 0
KEA1 100051Z 16007KT M00/M03 A3034 RMK A01 T10041029  RH  083%=      5-min Rain = 0
KEA1 100052Z 16007KT M01/M03 A3034 RMK A01 T10051029  RH  084%=      5-min Rain = 0
KEA1 100053Z 16007KT M01/M03 A3035 RMK A01 T10051028  RH  084%=      5-min Rain = 0
KEA1 100054Z 16007KT M01/M03 A3035 RMK A01 T10051028  RH  084%=      5-min Rain = 0
KEA1 100055Z 16007KT M01/M03 A3035 RMK A01 T10051028  RH  084%=      5-min Rain = 0
KEA1 100056Z 16007KT M01/M03 A3034 RMK A01 T10051028  RH  084%=      5-min Rain = 0
KEA1 100057Z 16008KT M01/M03 A3034 RMK A01 T10051028  RH  084%=      5-min Rain = 0
KEA1 100058Z 16008KT M00/M03 A3034 RMK A01 T10041028  RH  084%=      5-min Rain = 0
KEA1 100059Z 16008KT M00/M03 A3034 RMK A01 T10041028  RH  084%=      5-min Rain = 0
KEA1 100100Z 16008KT M00/M03 A3035 RMK A01 T10041028  RH  084%=      5-min Rain = 0
KEA1 100101Z 16007KT M00/M03 A3035 RMK A01 T10041028  RH  084%=      5-min Rain = 0
KEA1 100102Z 16007KT M00/M03 A3035 RMK A01 T10041028  RH  084%=      5-min Rain = 0
KEA1 100103Z 16006KT M00/M03 A3035 RMK A01 T10041028  RH  084%=      5-min Rain = 0
KEA1 100104Z 16006KT M00/M03 A3035 RMK A01 T10041028  RH  084%=      5-min Rain = 0
KEA1 100105Z 16006KT M00/M03 A3035 RMK A01 T10041028  RH  084%=      5-min Rain = 0
KEA1 100106Z 16006KT M00/M03 A3035 RMK A01 T10041028  RH  084%=      5-min Rain = 0
KEA1 100107Z 16006KT M00/M03 A3035 RMK A01 T10041028  RH  084%=      5-min Rain = 0
KEA1 100108Z 15006KT M00/M03 A3035 RMK A01 T10041028  RH  084%=      5-min Rain = 0
KEA1 100109Z 15006KT M00/M03 A3035 RMK A01 T10041028  RH  084%=      5-min Rain = 0
KEA1 100110Z 15005KT M00/M03 A3035 RMK A01 T10041028  RH  084%=      5-min Rain = 0
KEA1 100111Z 16005KT M00/M03 A3035 RMK A01 T10041027  RH  084%=      5-min Rain = 0
KEA1 100112Z 16005KT M00/M03 A3035 RMK A01 T10041027  RH  084%=      5-min Rain = 0
KEA1 100113Z 16004KT M01/M03 A3035 RMK A01 T10051028  RH  085%=      5-min Rain = 0
KEA1 100114Z 16004KT M01/M03 A3035 RMK A01 T10051028  RH  084%=      5-min Rain = 0
KEA1 100115Z 16004KT M01/M03 A3035 RMK A01 T10061029  RH  084%=      5-min Rain = 0
KEA1 100116Z 17004KT M01/M03 A3035 RMK A01 T10061028  RH  085%=      5-min Rain = 0
KEA1 100117Z 17003KT M01/M03 A3035 RMK A01 T10061028  RH  085%=      5-min Rain = 0
KEA1 100118Z 16003KT M01/M03 A3035 RMK A01 T10071029  RH  085%=      5-min Rain = 0
KEA1 100119Z 17004KT M01/M03 A3035 RMK A01 T10071030  RH  085%=      5-min Rain = 0
KEA1 100120Z 17004KT M01/M03 A3035 RMK A01 T10071028  RH  086%=      5-min Rain = 0
KEA1 100121Z 18004KT M01/M03 A3035 RMK A01 T10051026  RH  086%=      5-min Rain = 0
KEA1 100122Z 18005KT M00/M03 A3035 RMK A01 T10041026  RH  085%=      5-min Rain = 0
KEA1 100123Z 18004KT M00/M02 A3036 RMK A01 T10021023  RH  085%=      5-min Rain = 0
KEA1 100124Z 19005KT M00/M03 A3036 RMK A01 T10011025  RH  084%=      5-min Rain = 0
KEA1 100125Z 19005KT M00/M03 A3036 RMK A01 T10011026  RH  084%=      5-min Rain = 0
KEA1 100126Z 18006KT M00/M03 A3036 RMK A01 T10011025  RH  084%=      5-min Rain = 0
KEA1 100127Z 19004KT M00/M03 A3036 RMK A01 T10021026  RH  084%=      5-min Rain = 0
KEA1 100128Z 22003KT M00/M03 A3036 RMK A01 T10021026  RH  084%=      5-min Rain = 0
KEA1 100129Z 21003KT M00/M03 A3036 RMK A01 T10041027  RH  084%=      5-min Rain = 0
KEA1 100130Z 19004KT M00/M03 A3036 RMK A01 T10041026  RH  085%=      5-min Rain = 0
KEA1 100131Z 19003KT M00/M02 A3036 RMK A01 T10011023  RH  086%=      5-min Rain = 0
KEA1 100132Z 20003KT 00/02 A3036 RMK A01 T00-00-24  RH  084%=      5-min Rain = 0
KEA1 100133Z 20003KT 00/03 A3036 RMK A01 T00-00-25  RH  084%=      5-min Rain = 0
KEA1 100134Z 20004KT M00/M03 A3036 RMK A01 T10011026  RH  083%=      5-min Rain = 0
KEA1 100135Z 21004KT M00/M03 A3036 RMK A01 T10011025  RH  084%=      5-min Rain = 0
KEA1 100136Z 20005KT M00/M02 A3036 RMK A01 T10011024  RH  084%=      5-min Rain = 0
KEA1 100137Z 20005KT 00/02 A3036 RMK A01 T00-00-23  RH  085%=      5-min Rain = 0
KEA1 100138Z 21006KT 00/02 A3036 RMK A01 T00000-23  RH  085%=      5-min Rain = 0
KEA1 100139Z 21006KT 00/M02 A3036 RMK A01 T00021021  RH  085%=      5-min Rain = 0
KEA1 100140Z 21006KT 00/M02 A3036 RMK A01 T00031020  RH  085%=      5-min Rain = 0
KEA1 100141Z 21005KT 00/M02 A3036 RMK A01 T00041019  RH  085%=      5-min Rain = 0
KEA1 100142Z 21005KT 01/M02 A3036 RMK A01 T00051018  RH  084%=      5-min Rain = 0
KEA1 100143Z 20006KT 01/M02 A3036 RMK A01 T00071017  RH  084%=      5-min Rain = 0
KEA1 100144Z 21005KT 01/M02 A3036 RMK A01 T00081017  RH  083%=      5-min Rain = 0
KEA1 100145Z 21005KT 01/M02 A3036 RMK A01 T00081017  RH  083%=      5-min Rain = 0
KEA1 100146Z 21005KT 01/M02 A3037 RMK A01 T00081017  RH  083%=      5-min Rain = 0
KEA1 100147Z 22005KT 01/M02 A3037 RMK A01 T00091017  RH  083%=      5-min Rain = 0
KEA1 100148Z 23004KT 01/M02 A3037 RMK A01 T00121015  RH  083%=      5-min Rain = 0
KEA1 100149Z 23004KT 01/M02 A3037 RMK A01 T00131015  RH  081%=      5-min Rain = 0
KEA1 100150Z 23004KT 01/M02 A3037 RMK A01 T00141016  RH  080%=      5-min Rain = 0
KEA1 100151Z 22005KT 01/M02 A3037 RMK A01 T00131018  RH  080%=      5-min Rain = 0
KEA1 100152Z 22004KT 01/M02 A3037 RMK A01 T00111019  RH  080%=      5-min Rain = 0
KEA1 100153Z 22003KT 01/M02 A3037 RMK A01 T00101020  RH  081%=      5-min Rain = 0
KEA1 100154Z 23003KT 01/M02 A3037 RMK A01 T00081021  RH  081%=      5-min Rain = 0
KEA1 100155Z 23002KT 01/M02 A3037 RMK A01 T00061021  RH  082%=      5-min Rain = 0
KEA1 100156Z 28002KT 01/M02 A3037 RMK A01 T00051023  RH  082%=      5-min Rain = 0
KEA1 100157Z 26004KT 00/M03 A3037 RMK A01 T00021025  RH  082%=      5-min Rain = 0
KEA1 100158Z 25005KT M00/M03 A3037 RMK A01 T10021031  RH  081%=      5-min Rain = 0
KEA1 100159Z 26005KT M01/M03 A3037 RMK A01 T10071034  RH  082%=      5-min Rain = 0
KEA1 100200Z 26005KT M01/M03 A3037 RMK A01 T10101033  RH  084%=      5-min Rain = 0
KEA1 100201Z 25005KT M01/M03 A3037 RMK A01 T10111032  RH  086%=      5-min Rain = 0
KEA1 100202Z 25005KT M01/M03 A3037 RMK A01 T10111030  RH  087%=      5-min Rain = 0
KEA1 100203Z 25004KT M01/M03 A3037 RMK A01 T10111029  RH  088%=      5-min Rain = 0
KEA1 100204Z 25004KT M01/M03 A3037 RMK A01 T10101028  RH  088%=      5-min Rain = 0
KEA1 100205Z 26004KT M01/M03 A3037 RMK A01 T10101027  RH  088%=      5-min Rain = 0
KEA1 100206Z 26004KT M01/M03 A3037 RMK A01 T10101028  RH  088%=      5-min Rain = 0
KEA1 100207Z 27005KT M01/M03 A3037 RMK A01 T10101027  RH  088%=      5-min Rain = 0
KEA1 100208Z 26004KT M01/M03 A3037 RMK A01 T10111028  RH  088%=      5-min Rain = 0
KEA1 100209Z 26004KT M01/M03 A3037 RMK A01 T10111029  RH  088%=      5-min Rain = 0
KEA1 100210Z 27005KT M01/M03 A3038 RMK A01 T10131030  RH  088%=      5-min Rain = 0
KEA1 100211Z 27006KT M01/M03 A3038 RMK A01 T10141031  RH  088%=      5-min Rain = 0
KEA1 100212Z 27006KT M02/M03 A3038 RMK A01 T10151032  RH  088%=      5-min Rain = 0
KEA1 100213Z 27005KT M02/M03 A3038 RMK A01 T10171033  RH  089%=      5-min Rain = 0
KEA1 100214Z 27005KT M02/M03 A3038 RMK A01 T10171033  RH  089%=      5-min Rain = 0
KEA1 100215Z 27004KT M02/M03 A3038 RMK A01 T10181033  RH  090%=      5-min Rain = 0
KEA1 100216Z 26002KT M02/M03 A3038 RMK A01 T10181032  RH  090%=      5-min Rain = 0
KEA1 100217Z 27002KT M02/M03 A3038 RMK A01 T10171030  RH  091%=      5-min Rain = 0
KEA1 100218Z 27003KT M02/M03 A3038 RMK A01 T10171029  RH  091%=      5-min Rain = 0
KEA1 100219Z 28003KT M02/M03 A3038 RMK A01 T10161029  RH  091%=      5-min Rain = 0
KEA1 100220Z 28004KT M02/M03 A3038 RMK A01 T10161030  RH  091%=      5-min Rain = 0
KEA1 100221Z 28005KT M02/M03 A3038 RMK A01 T10171030  RH  090%=      5-min Rain = 0
KEA1 100222Z 28006KT M02/M03 A3038 RMK A01 T10171031  RH  090%=      5-min Rain = 0
KEA1 100223Z 27007KT M02/M03 A3038 RMK A01 T10181032  RH  090%=      5-min Rain = 0
KEA1 100224Z 28007KT M02/M03 A3038 RMK A01 T10191033  RH  090%=      5-min Rain = 0
KEA1 100225Z 28007KT M02/M04 A3038 RMK A01 T10201035  RH  089%=      5-min Rain = 0
KEA1 100226Z 29007KT M02/M04 A3038 RMK A01 T10211035  RH  090%=      5-min Rain = 0
KEA1 100227Z 29006KT M02/M03 A3038 RMK A01 T10211034  RH  091%=      5-min Rain = 0
KEA1 100228Z 28006KT M02/M03 A3038 RMK A01 T10211033  RH  091%=      5-min Rain = 0
KEA1 100229Z 28007KT M02/M03 A3038 RMK A01 T10201032  RH  091%=      5-min Rain = 0
KEA1 100230Z 28007KT M02/M03 A3038 RMK A01 T10201031  RH  092%=      5-min Rain = 0
KEA1 100231Z 28007KT M02/M03 A3038 RMK A01 T10201031  RH  092%=      5-min Rain = 0
KEA1 100232Z 28006KT M02/M03 A3038 RMK A01 T10191030  RH  092%=      5-min Rain = 0
KEA1 100233Z 29006KT M02/M03 A3038 RMK A01 T10191030  RH  092%=      5-min Rain = 0
KEA1 100234Z 29007KT M02/M03 A3038 RMK A01 T10181029  RH  092%=      5-min Rain = 0
KEA1 100235Z 29007KT M02/M03 A3038 RMK A01 T10171028  RH  092%=      5-min Rain = 0
KEA1 100236Z 29007KT M02/M03 A3038 RMK A01 T10181029  RH  092%=      5-min Rain = 0
KEA1 100237Z 29007KT M02/M03 A3038 RMK A01 T10171028  RH  092%=      5-min Rain = 0
KEA1 100238Z 29007KT M02/M03 A3038 RMK A01 T10171029  RH  092%=      5-min Rain = 0
KEA1 100239Z 29006KT M02/M03 A3038 RMK A01 T10181029  RH  092%=      5-min Rain = 0
KEA1 100240Z 29006KT M02/M03 A3038 RMK A01 T10181030  RH  092%=      5-min Rain = 0
KEA1 100241Z 29006KT M02/M03 A3038 RMK A01 T10191031  RH  092%=      5-min Rain = 0
KEA1 100242Z 28006KT M02/M03 A3038 RMK A01 T10191031  RH  092%=      5-min Rain = 0
KEA1 100243Z 28006KT M02/M03 A3038 RMK A01 T10191031  RH  092%=      5-min Rain = 0
KEA1 100244Z 28006KT M02/M03 A3038 RMK A01 T10191030  RH  092%=      5-min Rain = 0
KEA1 100245Z 28006KT M02/M03 A3038 RMK A01 T10191030  RH  092%=      5-min Rain = 0
KEA1 100246Z 28006KT M02/M03 A3038 RMK A01 T10191031  RH  092%=      5-min Rain = 0
KEA1 100247Z 28006KT M02/M03 A3038 RMK A01 T10201032  RH  091%=      5-min Rain = 0
KEA1 100248Z 28006KT M02/M03 A3038 RMK A01 T10201033  RH  091%=      5-min Rain = 0
KEA1 100249Z 29005KT M02/M03 A3038 RMK A01 T10211033  RH  091%=      5-min Rain = 0
KEA1 100250Z 29005KT M02/M03 A3038 RMK A01 T10201032  RH  092%=      5-min Rain = 0
KEA1 100251Z 29005KT M02/M03 A3038 RMK A01 T10211034  RH  091%=      5-min Rain = 0
KEA1 100252Z 28005KT M02/M03 A3038 RMK A01 T10221034  RH  091%=      5-min Rain = 0
KEA1 100253Z 28005KT M02/M03 A3038 RMK A01 T10221034  RH  091%=      5-min Rain = 0
KEA1 100254Z 28004KT M02/M04 A3038 RMK A01 T10231035  RH  091%=      5-min Rain = 0
KEA1 100255Z 28004KT M02/M04 A3038 RMK A01 T10231035  RH  092%=      5-min Rain = 0
KEA1 100256Z 28004KT M02/M04 A3038 RMK A01 T10231035  RH  092%=      5-min Rain = 0
KEA1 100257Z 28004KT M02/M04 A3038 RMK A01 T10231035  RH  092%=      5-min Rain = 0
KEA1 100258Z 28005KT M02/M04 A3038 RMK A01 T10231035  RH  092%=      5-min Rain = 0
KEA1 100259Z 28006KT M02/M04 A3038 RMK A01 T10231035  RH  092%=      5-min Rain = 0
KEA1 100300Z 28006KT M02/M04 A3038 RMK A01 T10231035  RH  092%=      5-min Rain = 0
KEA1 100301Z 27006KT M02/M04 A3038 RMK A01 T10231035  RH  092%=      5-min Rain = 0
KEA1 100302Z 27006KT M02/M04 A3038 RMK A01 T10231035  RH  092%=      5-min Rain = 0
KEA1 100303Z 27006KT M02/M04 A3038 RMK A01 T10231035  RH  092%=      5-min Rain = 0
KEA1 100304Z 27006KT M02/M04 A3038 RMK A01 T10231035  RH  091%=      5-min Rain = 0
KEA1 100305Z 27006KT M02/M04 A3038 RMK A01 T10221035  RH  091%=      5-min Rain = 0
KEA1 100306Z 28006KT M02/M04 A3038 RMK A01 T10231036  RH  091%=      5-min Rain = 0
KEA1 100307Z 28006KT M02/M04 A3038 RMK A01 T10231036  RH  090%=      5-min Rain = 0
KEA1 100308Z 28007KT M02/M04 A3038 RMK A01 T10231037  RH  090%=      5-min Rain = 0
KEA1 100309Z 27007KT M02/M04 A3038 RMK A01 T10241038  RH  090%=      5-min Rain = 0
KEA1 100310Z 27007KT M03/M04 A3038 RMK A01 T10251039  RH  090%=      5-min Rain = 0
KEA1 100311Z 27007KT M03/M04 A3038 RMK A01 T10251039  RH  090%=      5-min Rain = 0
KEA1 100312Z 27007KT M03/M04 A3038 RMK A01 T10251038  RH  091%=      5-min Rain = 0
KEA1 100313Z 27007KT M02/M04 A3038 RMK A01 T10241036  RH  091%=      5-min Rain = 0
KEA1 100314Z 27007KT M02/M04 A3038 RMK A01 T10231035  RH  092%=      5-min Rain = 0
KEA1 100315Z 27007KT M02/M03 A3038 RMK A01 T10221034  RH  092%=      5-min Rain = 0
KEA1 100316Z 27007KT M02/M03 A3038 RMK A01 T10211032  RH  092%=      5-min Rain = 0
KEA1 100317Z 27007KT M02/M03 A3038 RMK A01 T10211032  RH  092%=      5-min Rain = 0
KEA1 100318Z 27007KT M02/M03 A3038 RMK A01 T10201032  RH  092%=      5-min Rain = 0
KEA1 100319Z 27007KT M02/M03 A3038 RMK A01 T10201032  RH  091%=      5-min Rain = 0
KEA1 100320Z 27007KT M02/M03 A3038 RMK A01 T10201032  RH  091%=      5-min Rain = 0
KEA1 100321Z 27006KT M02/M03 A3038 RMK A01 T10211033  RH  091%=      5-min Rain = 0
KEA1 100322Z 27006KT M02/M03 A3038 RMK A01 T10211034  RH  091%=      5-min Rain = 0
KEA1 100323Z 27007KT M02/M03 A3038 RMK A01 T10211034  RH  091%=      5-min Rain = 0
KEA1 100324Z 27007KT M02/M03 A3038 RMK A01 T10211033  RH  091%=      5-min Rain = 0
KEA1 100325Z 27007KT M02/M03 A3038 RMK A01 T10201032  RH  092%=      5-min Rain = 0
KEA1 100326Z 27007KT M02/M03 A3038 RMK A01 T10201032  RH  091%=      5-min Rain = 0
KEA1 100327Z 27007KT M02/M03 A3038 RMK A01 T10201033  RH  091%=      5-min Rain = 0
KEA1 100328Z 27006KT M02/M03 A3038 RMK A01 T10201033  RH  091%=      5-min Rain = 0
KEA1 100329Z 27006KT M02/M03 A3038 RMK A01 T10211033  RH  091%=      5-min Rain = 0
KEA1 100330Z 27006KT M02/M03 A3038 RMK A01 T10211033  RH  091%=      5-min Rain = 0
KEA1 100331Z 27006KT M02/M03 A3038 RMK A01 T10201032  RH  091%=      5-min Rain = 0
KEA1 100332Z 27006KT M02/M03 A3038 RMK A01 T10201032  RH  091%=      5-min Rain = 0
KEA1 100333Z 27006KT M02/M03 A3038 RMK A01 T10201033  RH  091%=      5-min Rain = 0
KEA1 100334Z 27006KT M02/M03 A3038 RMK A01 T10211033  RH  091%=      5-min Rain = 0
KEA1 100335Z 27006KT M02/M03 A3038 RMK A01 T10211034  RH  091%=      5-min Rain = 0
KEA1 100336Z 26007KT M02/M03 A3038 RMK A01 T10211034  RH  091%=      5-min Rain = 0
KEA1 100337Z 26007KT M02/M03 A3038 RMK A01 T10221034  RH  092%=      5-min Rain = 0
KEA1 100338Z 26007KT M02/M03 A3038 RMK A01 T10211033  RH  092%=      5-min Rain = 0
KEA1 100339Z 26008KT M02/M03 A3038 RMK A01 T10211032  RH  092%=      5-min Rain = 0
KEA1 100340Z 26008KT M02/M03 A3038 RMK A01 T10191030  RH  093%=      5-min Rain = 0
KEA1 100341Z 26008KT M02/M03 A3038 RMK A01 T10181028  RH  093%=      5-min Rain = 0
KEA1 100342Z 26008KT M02/M03 A3038 RMK A01 T10161026  RH  093%=      5-min Rain = 0
KEA1 100343Z 26008KT M01/M02 A3038 RMK A01 T10141024  RH  093%=      5-min Rain = 0
KEA1 100344Z 26008KT M01/M02 A3038 RMK A01 T10131023  RH  093%=      5-min Rain = 0
KEA1 100345Z 26008KT M01/M02 A3038 RMK A01 T10131024  RH  092%=      5-min Rain = 0
KEA1 100346Z 26008KT M01/M03 A3038 RMK A01 T10131025  RH  092%=      5-min Rain = 0
KEA1 100347Z 26008KT M01/M03 A3038 RMK A01 T10131025  RH  092%=      5-min Rain = 0
KEA1 100348Z 26008KT M01/M03 A3038 RMK A01 T10131025  RH  092%=      5-min Rain = 0
KEA1 100349Z 26008KT M01/M03 A3038 RMK A01 T10131026  RH  091%=      5-min Rain = 0
KEA1 100350Z 26008KT M01/M03 A3038 RMK A01 T10131026  RH  091%=      5-min Rain = 0
KEA1 100351Z 26008KT M01/M03 A3038 RMK A01 T10131026  RH  091%=      5-min Rain = 0
KEA1 100352Z 26008KT M01/M03 A3038 RMK A01 T10131027  RH  091%=      5-min Rain = 0
KEA1 100353Z 26008KT M01/M03 A3038 RMK A01 T10141027  RH  091%=      5-min Rain = 0
KEA1 100354Z 26008KT M01/M03 A3038 RMK A01 T10141027  RH  091%=      5-min Rain = 0
KEA1 100355Z 26008KT M01/M03 A3038 RMK A01 T10141027  RH  091%=      5-min Rain = 0
KEA1 100356Z 25009KT M01/M03 A3038 RMK A01 T10141027  RH  091%=      5-min Rain = 0
KEA1 100357Z 26009KT M01/M03 A3038 RMK A01 T10141027  RH  091%=      5-min Rain = 0
KEA1 100358Z 26009KT M01/M03 A3038 RMK A01 T10131027  RH  091%=      5-min Rain = 0
KEA1 100359Z 26008KT M01/M03 A3038 RMK A01 T10131027  RH  090%=      5-min Rain = 0
KEA1 100400Z 26009KT M01/M03 A3038 RMK A01 T10131027  RH  090%=      5-min Rain = 0
KEA1 100401Z 25009KT M01/M03 A3038 RMK A01 T10131027  RH  090%=      5-min Rain = 0
KEA1 100402Z 25009KT M01/M03 A3038 RMK A01 T10131026  RH  090%=      5-min Rain = 0
KEA1 100403Z 25009KT M01/M03 A3038 RMK A01 T10111025  RH  090%=      5-min Rain = 0
KEA1 100404Z 25009KT M01/M03 A3038 RMK A01 T10111025  RH  090%=      5-min Rain = 0
KEA1 100405Z 26009KT M01/M03 A3038 RMK A01 T10091025  RH  089%=      5-min Rain = 0
KEA1 100406Z 26009KT M01/M03 A3038 RMK A01 T10091025  RH  089%=      5-min Rain = 0
KEA1 100407Z 26009KT M01/M03 A3038 RMK A01 T10091025  RH  089%=      5-min Rain = 0
KEA1 100408Z 26010KT M01/M02 A3038 RMK A01 T10071023  RH  089%=      5-min Rain = 0
KEA1 100409Z 26009KT M01/M02 A3038 RMK A01 T10061022  RH  089%=      5-min Rain = 0
KEA1 100410Z 25008KT M01/M02 A3038 RMK A01 T10051022  RH  088%=      5-min Rain = 0
KEA1 100411Z 26008KT M01/M02 A3038 RMK A01 T10051023  RH  088%=      5-min Rain = 0
KEA1 100412Z 26008KT M01/M02 A3038 RMK A01 T10061024  RH  087%=      5-min Rain = 0
KEA1 100413Z 26008KT M01/M03 A3038 RMK A01 T10071025  RH  087%=      5-min Rain = 0
KEA1 100414Z 26009KT M01/M03 A3038 RMK A01 T10071026  RH  088%=      5-min Rain = 0
KEA1 100415Z 26009KT M01/M03 A3038 RMK A01 T10071025  RH  088%=      5-min Rain = 0
KEA1 100416Z 25008KT M01/M03 A3038 RMK A01 T10081025  RH  088%=      5-min Rain = 0
KEA1 100417Z 25008KT M01/M02 A3038 RMK A01 T10071024  RH  088%=      5-min Rain = 0
KEA1 100418Z 25009KT M01/M03 A3039 RMK A01 T10071025  RH  088%=      5-min Rain = 0
KEA1 100419Z 25009KT M01/M03 A3039 RMK A01 T10081025  RH  088%=      5-min Rain = 0
KEA1 100420Z 25009KT M01/M03 A3039 RMK A01 T10081025  RH  088%=      5-min Rain = 0
KEA1 100421Z 26008KT M01/M03 A3039 RMK A01 T10081025  RH  088%=      5-min Rain = 0
KEA1 100422Z 26008KT M01/M03 A3039 RMK A01 T10071025  RH  087%=      5-min Rain = 0
KEA1 100423Z 26009KT M01/M03 A3039 RMK A01 T10071026  RH  087%=      5-min Rain = 0
KEA1 100424Z 26008KT M01/M03 A3039 RMK A01 T10081027  RH  087%=      5-min Rain = 0
KEA1 100425Z 26008KT M01/M03 A3039 RMK A01 T10091028  RH  087%=      5-min Rain = 0
KEA1 100426Z 26008KT M01/M03 A3039 RMK A01 T10101029  RH  087%=      5-min Rain = 0
KEA1 100427Z 26008KT M01/M03 A3039 RMK A01 T10101029  RH  087%=      5-min Rain = 0
KEA1 100428Z 26008KT M01/M03 A3039 RMK A01 T10111029  RH  087%=      5-min Rain = 0
KEA1 100429Z 26008KT M01/M03 A3039 RMK A01 T10111030  RH  087%=      5-min Rain = 0
KEA1 100430Z 26009KT M01/M03 A3039 RMK A01 T10121030  RH  087%=      5-min Rain = 0
KEA1 100431Z 26008KT M01/M03 A3039 RMK A01 T10131031  RH  088%=      5-min Rain = 0
KEA1 100432Z 26008KT M01/M03 A3039 RMK A01 T10131031  RH  088%=      5-min Rain = 0
KEA1 100433Z 26008KT M01/M03 A3039 RMK A01 T10131031  RH  088%=      5-min Rain = 0
KEA1 100434Z 26008KT M01/M03 A3039 RMK A01 T10141031  RH  088%=      5-min Rain = 0
KEA1 100435Z 26008KT M01/M03 A3039 RMK A01 T10141032  RH  088%=      5-min Rain = 0
KEA1 100436Z 26008KT M02/M03 A3039 RMK A01 T10151033  RH  088%=      5-min Rain = 0
KEA1 100437Z 26008KT M02/M03 A3039 RMK A01 T10161033  RH  088%=      5-min Rain = 0
KEA1 100438Z 26009KT M02/M03 A3039 RMK A01 T10161034  RH  088%=      5-min Rain = 0
KEA1 100439Z 26008KT M02/M04 A3039 RMK A01 T10171035  RH  088%=      5-min Rain = 0
KEA1 100440Z 26009KT M02/M04 A3039 RMK A01 T10181035  RH  088%=      5-min Rain = 0
KEA1 100441Z 25008KT M02/M04 A3039 RMK A01 T10191035  RH  088%=      5-min Rain = 0
KEA1 100442Z 26008KT M02/M04 A3039 RMK A01 T10191035  RH  089%=      5-min Rain = 0
KEA1 100443Z 26008KT M02/M04 A3039 RMK A01 T10191035  RH  089%=      5-min Rain = 0
KEA1 100444Z 26007KT M02/M04 A3038 RMK A01 T10201036  RH  089%=      5-min Rain = 0
KEA1 100445Z 26007KT M02/M04 A3038 RMK A01 T10201036  RH  089%=      5-min Rain = 0
KEA1 100446Z 26008KT M02/M04 A3038 RMK A01 T10211037  RH  089%=      5-min Rain = 0
KEA1 100447Z 26008KT M02/M04 A3038 RMK A01 T10221037  RH  089%=      5-min Rain = 0
KEA1 100448Z 25008KT M02/M04 A3038 RMK A01 T10221037  RH  090%=      5-min Rain = 0
KEA1 100449Z 25008KT M02/M04 A3038 RMK A01 T10221036  RH  090%=      5-min Rain = 0
KEA1 100450Z 26008KT M02/M04 A3038 RMK A01 T10221036  RH  090%=      5-min Rain = 0
KEA1 100451Z 26007KT M02/M04 A3038 RMK A01 T10211035  RH  090%=      5-min Rain = 0
KEA1 100452Z 26007KT M02/M04 A3038 RMK A01 T10211035  RH  090%=      5-min Rain = 0
KEA1 100453Z 25008KT M02/M04 A3038 RMK A01 T10211035  RH  090%=      5-min Rain = 0
KEA1 100454Z 25007KT M02/M04 A3038 RMK A01 T10211036  RH  090%=      5-min Rain = 0
KEA1 100455Z 26007KT M02/M04 A3038 RMK A01 T10211035  RH  090%=      5-min Rain = 0
KEA1 100456Z 25007KT M02/M04 A3038 RMK A01 T10211035  RH  090%=      5-min Rain = 0
KEA1 100457Z 26007KT M02/M03 A3038 RMK A01 T10211034  RH  090%=      5-min Rain = 0
KEA1 100458Z 26007KT M02/M04 A3038 RMK A01 T10211035  RH  090%=      5-min Rain = 0
KEA1 100459Z 26008KT M02/M04 A3038 RMK A01 T10211035  RH  090%=      5-min Rain = 0
KEA1 100500Z 26008KT M02/M04 A3038 RMK A01 T10211036  RH  090%=      5-min Rain = 0
KEA1 100501Z 26008KT M02/M04 A3038 RMK A01 T10211035  RH  090%=      5-min Rain = 0
KEA1 100502Z 26008KT M02/M04 A3038 RMK A01 T10221036  RH  090%=      5-min Rain = 0
KEA1 100503Z 26008KT M02/M04 A3038 RMK A01 T10221036  RH  090%=      5-min Rain = 0
KEA1 100504Z 26008KT M02/M04 A3038 RMK A01 T10221035  RH  090%=      5-min Rain = 0
KEA1 100505Z 26008KT M02/M04 A3038 RMK A01 T10221036  RH  090%=      5-min Rain = 0
KEA1 100506Z 27007KT M02/M04 A3039 RMK A01 T10221036  RH  090%=      5-min Rain = 0
KEA1 100507Z 27007KT M02/M04 A3039 RMK A01 T10231037  RH  090%=      5-min Rain = 0
KEA1 100508Z 26007KT M02/M04 A3039 RMK A01 T10241038  RH  090%=      5-min Rain = 0
KEA1 100509Z 26008KT M03/M04 A3038 RMK A01 T10261040  RH  090%=      5-min Rain = 0
KEA1 100510Z 26008KT M03/M04 A3038 RMK A01 T10261040  RH  090%=      5-min Rain = 0
KEA1 100511Z 26008KT M03/M04 A3038 RMK A01 T10261039  RH  091%=      5-min Rain = 0
KEA1 100512Z 26008KT M03/M04 A3038 RMK A01 T10261039  RH  091%=      5-min Rain = 0
KEA1 100513Z 26008KT M03/M04 A3038 RMK A01 T10261038  RH  091%=      5-min Rain = 0
KEA1 100514Z 26007KT M03/M04 A3038 RMK A01 T10251037  RH  092%=      5-min Rain = 0
KEA1 100515Z 26007KT M03/M04 A3038 RMK A01 T10251037  RH  091%=      5-min Rain = 0
KEA1 100516Z 26007KT M03/M04 A3038 RMK A01 T10251038  RH  091%=      5-min Rain = 0
KEA1 100517Z 26007KT M03/M04 A3038 RMK A01 T10261039  RH  091%=      5-min Rain = 0
KEA1 100518Z 26007KT M03/M04 A3038 RMK A01 T10271040  RH  091%=      5-min Rain = 0
KEA1 100519Z 26007KT M03/M04 A3038 RMK A01 T10281041  RH  091%=      5-min Rain = 0
KEA1 100520Z 26008KT M03/M04 A3038 RMK A01 T10291041  RH  091%=      5-min Rain = 0
KEA1 100521Z 26008KT M03/M04 A3038 RMK A01 T10291041  RH  091%=      5-min Rain = 0
KEA1 100522Z 26008KT M03/M04 A3038 RMK A01 T10281040  RH  092%=      5-min Rain = 0
KEA1 100523Z 26007KT M03/M04 A3039 RMK A01 T10281040  RH  092%=      5-min Rain = 0
KEA1 100524Z 26008KT M03/M04 A3039 RMK A01 T10281040  RH  092%=      5-min Rain = 0
KEA1 100525Z 26008KT M03/M04 A3039 RMK A01 T10281040  RH  092%=      5-min Rain = 0
KEA1 100526Z 25008KT M03/M04 A3038 RMK A01 T10281039  RH  092%=      5-min Rain = 0
KEA1 100527Z 25009KT M03/M04 A3038 RMK A01 T10271038  RH  092%=      5-min Rain = 0
KEA1 100528Z 25009KT M03/M04 A3038 RMK A01 T10261037  RH  092%=      5-min Rain = 0
KEA1 100529Z 25008KT M03/M04 A3038 RMK A01 T10251036  RH  092%=      5-min Rain = 0
KEA1 100530Z 25008KT M03/M04 A3038 RMK A01 T10251037  RH  091%=      5-min Rain = 0
KEA1 100531Z 26008KT M03/M04 A3038 RMK A01 T10251037  RH  091%=      5-min Rain = 0
KEA1 100532Z 26008KT M03/M04 A3039 RMK A01 T10251038  RH  091%=      5-min Rain = 0
KEA1 100533Z 26008KT M02/M04 A3039 RMK A01 T10241037  RH  091%=      5-min Rain = 0
KEA1 100534Z 26009KT M03/M04 A3039 RMK A01 T10251038  RH  091%=      5-min Rain = 0
KEA1 100535Z 26009KT M03/M04 A3039 RMK A01 T10251038  RH  091%=      5-min Rain = 0
KEA1 100536Z 25008KT M03/M04 A3038 RMK A01 T10251038  RH  091%=      5-min Rain = 0
KEA1 100537Z 25008KT M03/M04 A3038 RMK A01 T10251037  RH  091%=      5-min Rain = 0
KEA1 100538Z 25008KT M03/M04 A3038 RMK A01 T10251037  RH  091%=      5-min Rain = 0
KEA1 100539Z 25008KT M03/M04 A3038 RMK A01 T10251037  RH  091%=      5-min Rain = 0
KEA1 100540Z 26008KT M03/M04 A3038 RMK A01 T10251037  RH  091%=      5-min Rain = 0
KEA1 100541Z 26008KT M02/M04 A3038 RMK A01 T10241037  RH  091%=      5-min Rain = 0
KEA1 100542Z 26008KT M02/M04 A3038 RMK A01 T10241037  RH  091%=      5-min Rain = 0
KEA1 100543Z 26008KT M02/M04 A3038 RMK A01 T10241037  RH  091%=      5-min Rain = 0
KEA1 100544Z 26008KT M03/M04 A3038 RMK A01 T10261039  RH  091%=      5-min Rain = 0
KEA1 100545Z 26008KT M03/M04 A3038 RMK A01 T10251038  RH  091%=      5-min Rain = 0
KEA1 100546Z 26008KT M03/M04 A3038 RMK A01 T10251038  RH  091%=      5-min Rain = 0
KEA1 100547Z 26008KT M03/M04 A3038 RMK A01 T10261038  RH  091%=      5-min Rain = 0
KEA1 100548Z 26008KT M03/M04 A3038 RMK A01 T10251037  RH  091%=      5-min Rain = 0
KEA1 100549Z 26008KT M03/M04 A3038 RMK A01 T10251037  RH  091%=      5-min Rain = 0
KEA1 100550Z 26008KT M03/M04 A3038 RMK A01 T10251037  RH  092%=      5-min Rain = 0
KEA1 100551Z 26008KT M03/M04 A3038 RMK A01 T10251037  RH  092%=      5-min Rain = 0
KEA1 100552Z 26008KT M03/M04 A3038 RMK A01 T10251037  RH  092%=      5-min Rain = 0
KEA1 100553Z 27008KT M02/M04 A3038 RMK A01 T10241037  RH  091%=      5-min Rain = 0
KEA1 100554Z 27008KT M03/M04 A3038 RMK A01 T10251038  RH  091%=      5-min Rain = 0
KEA1 100555Z 27008KT M03/M04 A3038 RMK A01 T10261039  RH  091%=      5-min Rain = 0
KEA1 100556Z 27008KT M03/M04 A3038 RMK A01 T10271040  RH  091%=      5-min Rain = 0
KEA1 100557Z 27008KT M03/M04 A3038 RMK A01 T10281041  RH  091%=      5-min Rain = 0
KEA1 100558Z 26009KT M03/M04 A3038 RMK A01 T10291042  RH  091%=      5-min Rain = 0
KEA1 100559Z 26008KT M03/M04 A3038 RMK A01 T10291042  RH  091%=      5-min Rain = 0

Page generated in 0.0715 seconds.